<- Previous Day | Today | Next Day ->

All Data for 30 June 2020

 

Time A - D Temp A - D Dew Point A - D Humidity A - D Pressure A - D Wind A - D Wind Dir Gust A - D Rain Rate A - D Rain Total
00:00 13.1 11.2 88 1011.0 5.4 S 9.2 0.0 0.0
00:02 13.1 11.2 88 1011.0 6.0 WSW 9.2 0.0 0.0
00:03 13.1 11.2 88 1010.9 5.4 S 8.3 0.0 0.0
00:04 13.1 11.2 88 1010.8 6.0 S 8.3 0.0 0.0
00:05 13.1 11.2 88 1010.8 7.6 SW 8.3 0.0 0.0
00:06 13.1 11.2 88 1010.9 6.9 S 8.3 0.0 0.0
00:07 13.1 11.2 88 1010.9 6.9 S 8.3 0.0 0.0
00:08 13.1 11.2 88 1011.0 5.4 SW 8.3 0.0 0.0
00:09 13.1 11.2 88 1011.0 7.6 S 8.3 0.0 0.0
00:10 13.1 11.2 88 1010.9 7.6 S 8.3 0.0 0.0
00:11 13.1 11.2 88 1010.9 5.4 S 8.3 0.0 0.0
00:12 13.1 11.2 88 1011.0 6.0 SW 8.3 0.0 0.0
00:13 13.1 11.2 88 1010.7 6.0 S 7.6 0.0 0.0
00:14 13.1 11.2 88 1010.7 6.9 SSW 7.6 0.0 0.0
00:16 13.0 11.1 88 1010.8 6.9 SW 7.6 0.0 0.0
00:17 13.0 11.1 88 1010.6 6.0 S 7.6 0.0 0.0
00:18 13.0 11.1 88 1010.7 6.0 S 7.6 0.0 0.0
00:19 13.0 11.1 88 1010.7 6.0 SW 7.6 0.0 0.0
00:20 13.0 11.1 88 1010.7 5.4 SSW 6.9 0.0 0.0
00:21 13.0 11.1 88 1010.5 5.4 SSW 6.9 0.0 0.0
00:22 13.0 11.1 88 1010.5 4.5 SSW 6.9 0.0 0.0
00:23 13.0 11.1 88 1010.5 5.4 S 6.9 0.0 0.0
00:24 13.0 11.1 88 1010.9 5.4 S 6.9 0.0 0.0
00:25 13.0 11.1 88 1010.7 3.8 SW 6.9 0.0 0.0
00:26 13.0 11.1 88 1010.7 5.4 SW 6.9 0.0 0.0
00:27 13.0 11.1 88 1010.6 5.4 S 6.9 0.0 0.0
00:28 13.0 11.1 88 1010.6 5.4 SW 6.0 0.0 0.0
00:30 13.0 11.1 88 1010.5 5.4 S 5.4 0.0 0.0
00:31 13.0 11.1 88 1010.6 5.4 SW 5.4 0.0 0.0
00:32 13.0 11.1 88 1010.6 5.4 SW 5.4 0.0 0.0
00:33 13.0 11.1 88 1010.7 5.4 S 5.4 0.0 0.0
00:34 13.0 11.1 88 1010.5 5.4 S 6.0 0.0 0.0
00:35 13.0 11.1 88 1010.5 5.4 S 6.0 0.0 0.0
00:36 13.0 11.1 88 1010.6 6.0 S 6.0 0.0 0.0
00:37 13.0 11.1 88 1010.5 4.5 SW 6.0 0.0 0.0
00:38 13.0 11.1 88 1010.4 6.0 S 6.0 0.0 0.0
00:39 13.0 11.1 88 1010.7 5.4 SW 6.0 0.0 0.0
00:40 13.0 11.1 88 1010.3 5.4 SW 6.0 0.0 0.0
00:41 13.0 11.1 88 1010.4 5.4 SW 6.0 0.0 0.0
00:42 13.0 11.1 88 1010.6 6.0 S 6.0 0.0 0.0
00:44 13.0 11.1 88 1010.4 5.4 S 6.0 0.0 0.0
00:45 13.0 11.2 89 1010.4 4.5 S 6.0 0.0 0.0
00:46 13.0 11.2 89 1010.3 6.9 SW 6.9 0.0 0.0
00:47 13.0 11.2 89 1010.3 5.4 S 6.9 0.0 0.0
00:48 13.0 11.2 89 1010.3 5.4 SW 6.9 0.0 0.0
00:49 13.0 11.2 89 1010.4 5.4 SW 6.9 0.0 0.0
00:50 13.0 11.2 89 1010.3 6.0 SW 6.9 0.0 0.0
00:51 13.0 11.2 89 1010.4 5.4 SW 6.9 0.0 0.0
00:52 13.0 11.2 89 1010.3 4.5 S 6.9 0.0 0.0
00:53 13.0 11.2 89 1010.4 4.5 S 6.9 0.0 0.0
00:54 13.0 11.2 89 1010.2 4.5 S 6.9 0.0 0.0
00:55 13.0 11.2 89 1010.4 4.5 SW 6.9 0.0 0.0
00:56 13.0 11.2 89 1010.4 3.8 S 6.9 0.0 0.0
00:58 13.0 11.2 89 1010.2 3.8 S 6.0 0.0 0.0
00:59 13.0 11.2 89 1010.2 5.4 SW 6.0 0.0 0.0
01:00 13.0 11.2 89 1010.4 5.4 SW 5.4 0.0 0.0
01:01 13.0 11.2 89 1010.3 5.4 SW 5.4 0.0 0.0
01:02 13.0 11.2 89 1010.1 5.4 SW 5.4 0.0 0.0
01:03 13.0 11.2 89 1010.1 5.4 SW 5.4 0.0 0.0
01:04 13.0 11.2 89 1010.4 5.4 SW 5.4 0.0 0.0
01:05 13.0 11.2 89 1010.3 5.4 SW 5.4 0.0 0.0
01:06 13.0 11.2 89 1010.3 5.4 SW 5.4 0.0 0.0
01:07 13.0 11.2 89 1010.3 5.4 SW 5.4 0.0 0.0
01:08 13.0 11.2 89 1010.4 5.4 SW 5.4 0.0 0.0
01:09 13.0 11.2 89 1010.2 3.8 SW 5.4 0.0 0.0
01:10 13.0 11.2 89 1010.1 3.8 SW 5.4 0.0 0.0
01:12 13.0 11.2 89 1010.1 5.4 SW 5.4 0.0 0.0
01:13 13.0 11.2 89 1010.0 4.5 SW 5.4 0.0 0.0
01:14 13.0 11.2 89 1010.3 3.1 SW 5.4 0.0 0.0
01:15 13.0 11.2 89 1010.0 3.8 S 5.4 0.0 0.0
01:16 13.0 11.2 89 1010.2 4.5 SW 5.4 0.0 0.0
01:17 13.0 11.2 89 1009.9 5.4 SW 5.4 0.0 0.0
01:18 13.0 11.2 89 1010.0 4.5 S 5.4 0.0 0.0
01:19 13.0 11.2 89 1010.0 4.5 SE 5.4 0.0 0.0
01:20 13.0 11.2 89 1010.1 3.8 SW 5.4 0.0 0.0
01:21 13.0 11.2 89 1010.2 3.8 SW 5.4 0.0 0.0
01:22 13.0 11.2 89 1009.8 4.5 NNE 5.4 0.0 0.0
01:23 13.0 11.2 89 1009.6 4.5 S 5.4 0.0 0.0
01:24 13.0 11.2 89 1010.0 4.5 SW 5.4 0.0 0.0
01:26 13.0 11.2 89 1009.9 3.8 SW 5.4 0.0 0.0
01:27 13.0 11.2 89 1009.8 5.4 S 5.4 0.0 0.0
01:28 13.0 11.2 89 1009.9 4.5 SW 5.4 0.0 0.0
01:29 13.0 11.2 89 1009.9 4.5 S 5.4 0.0 0.0
01:30 13.0 11.2 89 1009.9 5.4 SW 5.4 0.0 0.0
01:31 13.0 11.2 89 1009.9 5.4 SW 5.4 0.0 0.0
01:32 13.0 11.2 89 1009.7 3.8 S 5.4 0.0 0.0
01:33 13.0 11.2 89 1009.9 4.5 SW 5.4 0.0 0.0
01:34 13.0 11.2 89 1009.9 4.5 S 5.4 0.0 0.0
01:35 13.0 11.2 89 1009.5 3.1 S 5.4 0.0 0.0
01:36 13.0 11.2 89 1009.7 3.1 S 5.4 0.0 0.0
01:37 13.0 11.2 89 1009.8 3.1 SW 5.4 0.0 0.0
01:38 13.0 11.2 89 1009.6 3.8 S 5.4 0.0 0.0
01:40 13.0 11.2 89 1009.7 3.8 SW 5.4 0.0 0.0
01:41 13.0 11.2 89 1009.7 4.5 S 4.5 0.0 0.0
01:42 13.0 11.2 89 1009.6 3.1 S 5.4 0.0 0.0
01:43 13.0 11.2 89 1009.8 3.8 SSW 5.4 0.0 0.0
01:44 13.0 11.2 89 1009.6 3.8 S 5.4 0.0 0.0
01:45 13.0 11.2 89 1009.6 3.8 S 5.4 0.0 0.0
01:46 13.0 11.2 89 1009.6 3.8 S 5.4 0.0 0.0
01:47 13.0 11.4 90 1009.6 3.1 S 5.4 0.0 0.0
01:48 13.0 11.4 90 1009.8 3.8 S 5.4 0.0 0.0
01:49 13.0 11.4 90 1009.7 3.8 WSW 5.4 0.0 0.0
01:50 13.0 11.4 90 1009.6 4.5 SW 5.4 0.0 0.0
01:51 13.0 11.4 90 1009.6 4.5 S 5.4 0.0 0.0
01:52 13.0 11.4 90 1009.5 3.8 SW 5.4 0.0 0.0
01:54 13.0 11.4 90 1009.5 5.4 S 5.4 0.0 0.0
01:55 13.0 11.4 90 1009.5 3.8 S 5.4 0.0 0.0
01:56 13.0 11.4 90 1009.4 3.8 SW 5.4 0.0 0.0
01:57 13.0 11.4 90 1009.5 3.8 S 5.4 0.0 0.0
01:58 13.0 11.4 90 1009.4 5.4 SW 5.4 0.0 0.0
01:59 13.0 11.4 90 1009.3 5.4 SW 5.4 0.0 0.0
02:00 13.0 11.4 90 1009.3 5.4 SW 5.4 0.0 0.0
02:01 13.0 11.4 90 1009.5 3.1 SSW 5.4 0.0 0.0
02:02 13.0 11.4 90 1009.3 3.8 S 5.4 0.0 0.0
02:03 13.0 11.4 90 1009.3 6.0 S 6.0 0.0 0.0
02:04 13.0 11.4 90 1009.6 6.0 S 6.0 0.0 0.0
02:05 13.0 11.4 90 1009.4 5.4 SW 6.0 0.0 0.0
02:06 13.0 11.4 90 1009.3 6.0 SW 6.0 0.0 0.0
02:07 13.0 11.4 90 1009.4 5.4 S 6.0 0.0 0.0
02:08 13.0 11.4 90 1009.7 4.5 SW 6.0 0.0 0.0
02:10 13.0 11.4 90 1009.3 4.5 S 6.0 0.0 0.0
02:11 13.0 11.4 90 1009.2 3.1 S 6.0 0.0 0.0
02:12 13.0 11.4 90 1009.2 3.1 SW 6.0 0.0 0.0
02:13 13.0 11.4 90 1009.2 7.6 SW 7.6 0.0 0.0
02:14 13.0 11.4 90 1009.3 6.0 SW 7.6 0.0 0.0
02:15 13.0 11.4 90 1009.3 6.0 SW 7.6 0.0 0.0
02:16 13.0 11.4 90 1009.3 4.5 S 7.6 0.0 0.0
02:17 13.0 11.4 90 1009.4 4.5 SW 7.6 0.0 0.0
02:18 13.0 11.4 90 1009.3 4.5 SW 7.6 0.0 0.0
02:19 13.0 11.4 90 1009.4 3.8 NW 7.6 0.0 0.0
02:20 13.0 11.4 90 1009.2 8.3 SW 8.3 0.0 0.0
02:21 13.0 11.4 90 1009.3 6.0 SW 8.3 0.0 0.0
02:22 13.0 11.4 90 1009.2 6.0 SW 8.3 0.0 0.0
02:24 13.0 11.4 90 1009.3 5.4 SW 8.3 0.0 0.0
02:25 13.0 11.4 90 1009.3 6.0 SW 8.3 0.0 0.0
02:26 13.0 11.4 90 1009.4 6.0 NW 8.3 0.0 0.0
02:27 13.0 11.4 90 1009.4 4.5 SW 8.3 0.0 0.0
02:28 13.0 11.4 90 1009.1 4.5 SSW 8.3 0.0 0.0
02:29 13.0 11.4 90 1009.3 5.4 SW 8.3 0.0 0.0
02:30 13.0 11.4 90 1009.3 5.4 SW 8.3 0.0 0.0
02:31 13.0 11.4 90 1009.1 5.4 SW 6.0 0.0 0.0
02:32 13.0 11.4 90 1009.1 4.5 W 6.0 0.0 0.0
02:33 13.0 11.4 90 1009.2 4.5 S 6.0 0.0 0.0
02:34 13.0 11.4 90 1009.2 4.5 S 6.0 0.0 0.0
02:35 13.0 11.4 90 1009.1 5.4 SW 6.0 0.0 0.0
02:36 13.0 11.4 90 1009.1 5.4 S 6.0 0.0 0.0
02:37 13.0 11.4 90 1009.3 3.8 SW 6.0 0.0 0.0
02:39 13.0 11.4 90 1009.0 5.4 S 5.4 0.0 0.0
02:40 13.0 11.4 90 1009.0 5.4 SW 5.4 0.0 0.0
02:41 13.0 11.4 90 1009.3 5.4 WSW 5.4 0.0 0.0
02:42 13.0 11.4 90 1009.1 3.8 SW 5.4 0.0 0.0
02:43 13.0 11.4 90 1009.0 5.4 SW 5.4 0.0 0.0
02:44 13.0 11.4 90 1009.0 5.4 SW 5.4 0.0 0.0
02:45 13.0 11.4 90 1009.0 5.4 SW 5.4 0.0 0.0
02:46 13.0 11.4 90 1008.8 3.8 S 5.4 0.0 0.0
02:47 13.0 11.4 90 1008.8 6.9 SW 6.9 0.0 0.0
02:48 13.0 11.4 90 1008.8 6.9 SW 6.9 0.0 0.0
02:49 13.0 11.4 90 1008.9 4.5 SW 6.9 0.0 0.0
02:50 13.0 11.4 90 1008.7 4.5 S 6.9 0.0 0.0
02:51 13.0 11.4 90 1008.7 4.5 SW 6.9 0.0 0.0
02:53 13.0 11.4 90 1008.9 3.8 S 6.9 0.0 0.0
02:54 13.0 11.4 90 1008.8 3.1 SW 6.9 0.0 0.0
02:55 13.0 11.4 90 1008.9 3.1 SW 6.9 0.0 0.0
02:56 13.0 11.4 90 1008.8 5.4 S 6.9 0.0 0.0
02:57 13.0 11.4 90 1009.0 5.4 SW 6.9 0.0 0.0
02:58 13.0 11.4 90 1008.9 4.5 S 5.4 0.0 0.0
02:59 13.0 11.4 90 1008.7 3.8 S 5.4 0.0 0.0
03:00 13.0 11.4 90 1008.8 4.5 SW 5.4 0.0 0.0
03:01 13.0 11.4 90 1008.8 4.5 SW 5.4 0.0 0.0
03:02 13.0 11.4 90 1008.8 4.5 SW 5.4 0.0 0.0
03:03 13.0 11.4 90 1008.8 4.5 SW 5.4 0.0 0.0
03:04 13.0 11.4 90 1008.7 4.5 SW 5.4 0.0 0.0
03:05 13.0 11.4 90 1008.8 4.5 SW 5.4 0.0 0.0
03:07 13.0 11.4 90 1008.7 3.8 S 4.5 0.0 0.0
03:08 13.0 11.4 90 1008.7 3.1 S 4.5 0.0 0.0
03:09 13.0 11.4 90 1008.7 6.0 S 6.0 0.0 0.0
03:10 13.1 11.5 90 1008.4 6.0 SW 6.0 0.0 0.0
03:11 13.1 11.5 90 1008.7 6.0 SW 6.0 0.0 0.0
03:12 13.1 11.5 90 1008.7 6.0 SW 6.0 0.0 0.0
03:13 13.1 11.5 90 1008.5 3.8 SW 6.0 0.0 0.0
03:14 13.1 11.5 90 1008.8 4.5 S 6.0 0.0 0.0
03:15 13.1 11.5 90 1008.5 4.5 SW 6.0 0.0 0.0
03:16 13.1 11.5 90 1008.5 6.9 SW 6.9 0.0 0.0
03:18 13.1 11.5 90 1008.5 4.5 S 6.9 0.0 0.0
03:19 13.1 11.7 91 1008.4 5.4 WSW 6.9 0.0 0.0
03:20 13.1 11.7 91 1008.3 4.5 SW 6.9 0.0 0.0
03:21 13.1 11.7 91 1008.4 5.4 S 6.9 0.0 0.0
03:22 13.1 11.7 91 1008.3 5.4 S 6.9 0.0 0.0
03:23 13.1 11.7 91 1008.3 5.4 S 6.9 0.0 0.0
03:24 13.1 11.7 91 1008.4 4.5 SW 6.9 0.0 0.0
03:26 13.1 11.7 91 1008.5 4.5 SW 6.9 0.0 0.0
03:27 13.1 11.7 91 1008.3 4.5 SW 6.9 0.0 0.0
03:28 13.1 11.7 91 1008.5 5.4 S 6.9 0.0 0.0
03:29 13.1 11.7 91 1008.5 5.4 S 6.9 0.0 0.0
03:30 13.1 11.7 91 1008.5 6.0 SW 6.9 0.0 0.0
03:31 13.1 11.7 91 1008.5 6.0 SW 6.9 0.0 0.0
03:32 13.1 11.7 91 1008.4 4.5 SW 6.9 0.0 0.0
03:33 13.1 11.7 91 1008.5 6.0 S 6.9 0.0 0.0
03:34 13.1 11.7 91 1008.2 3.8 SW 6.9 0.0 0.0
03:35 13.1 11.7 91 1008.2 5.4 SW 6.9 0.0 0.0
03:36 13.1 11.7 91 1008.3 6.0 SW 6.9 0.0 0.0
03:37 13.1 11.7 91 1008.4 4.5 SW 6.0 0.0 0.0
03:38 13.1 11.7 91 1008.2 3.1 S 6.0 0.0 0.0
03:40 13.1 11.7 91 1008.0 5.4 SW 6.0 0.0 0.0
03:41 13.1 11.7 91 1008.1 5.4 S 6.0 0.0 0.0
03:42 13.1 11.7 91 1008.1 4.5 S 6.0 0.0 0.0
03:43 13.1 11.7 91 1008.3 4.5 S 6.0 0.0 0.0
03:44 13.1 11.7 91 1008.2 3.8 SW 6.0 0.0 0.0
03:45 13.1 11.7 91 1008.2 3.8 SW 6.0 0.0 0.0
03:46 13.1 11.7 91 1008.0 5.4 SSW 6.0 0.0 0.0
03:47 13.1 11.7 91 1008.2 3.8 S 5.4 0.0 0.0
03:48 13.1 11.7 91 1008.1 5.4 SW 5.4 0.0 0.0
03:49 13.1 11.7 91 1008.1 6.9 SW 6.9 0.0 0.0
03:50 13.1 11.7 91 1008.2 6.0 S 6.9 0.0 0.0
03:51 13.1 11.7 91 1008.2 6.0 SW 6.9 0.0 0.0
03:52 13.1 11.7 91 1008.3 6.0 S 7.6 0.0 0.0
03:54 13.1 11.7 91 1008.4 5.4 S 7.6 0.0 0.0
03:55 13.1 11.7 91 1008.5 5.4 SW 7.6 0.0 0.0
03:56 13.1 11.7 91 1008.3 6.0 SW 7.6 0.0 0.0
03:57 13.1 11.7 91 1008.5 5.4 SW 7.6 0.0 0.0
03:58 13.1 11.7 91 1008.5 4.5 SW 7.6 0.0 0.0
03:59 13.1 11.7 91 1008.5 4.5 SW 7.6 0.0 0.0
04:00 13.1 11.7 91 1008.4 4.5 S 7.6 0.0 0.0
04:01 13.1 11.7 91 1008.2 6.0 WSW 7.6 0.0 0.0
04:02 13.1 11.7 91 1008.4 6.0 SW 6.0 0.0 0.0
04:03 13.1 11.7 91 1008.2 6.0 SW 6.0 0.0 0.0
04:04 13.1 11.7 91 1008.2 5.4 S 6.0 0.0 0.0
04:05 13.1 11.7 91 1008.1 7.6 S 7.6 0.0 0.0
04:06 13.1 11.7 91 1008.2 3.8 S 7.6 0.0 0.0
04:08 13.1 11.7 91 1008.0 6.9 SW 7.6 0.0 0.0
04:09 13.1 11.7 91 1008.0 6.0 SW 7.6 0.0 0.0
04:10 13.1 11.7 91 1007.9 6.9 SW 7.6 0.0 0.0
04:11 13.1 11.7 91 1008.1 6.9 WSW 7.6 0.0 0.0
04:12 13.1 11.7 91 1007.9 6.9 SW 7.6 0.0 0.0
04:13 13.1 11.7 91 1008.0 6.9 SW 7.6 0.0 0.0
04:14 13.1 11.7 91 1008.1 4.5 SW 7.6 0.0 0.0
04:15 13.1 11.7 91 1008.0 6.0 SW 6.9 0.0 0.0
04:16 13.1 11.7 91 1008.0 4.5 SW 6.9 0.0 0.0
04:17 13.1 11.7 91 1007.9 6.0 SW 6.9 0.0 0.0
04:18 13.1 11.7 91 1007.9 5.4 SW 6.9 0.0 0.0
04:19 13.1 11.7 91 1007.8 6.0 SSW 6.9 0.0 0.0
04:20 13.1 11.7 91 1008.1 6.9 SW 6.9 0.0 0.0
04:22 13.1 11.7 91 1007.9 4.5 SW 6.9 0.0 0.0
04:23 13.1 11.7 91 1007.8 5.4 S 6.9 0.0 0.0
04:24 13.1 11.7 91 1008.0 4.5 S 6.9 0.0 0.0
04:25 13.1 11.7 91 1007.8 6.0 SW 6.9 0.0 0.0
04:26 13.1 11.7 91 1007.8 6.0 S 6.9 0.0 0.0
04:27 13.1 11.7 91 1007.8 6.0 S 6.9 0.0 0.0
04:28 13.1 11.7 91 1007.8 5.4 SW 6.9 0.0 0.0
04:29 13.1 11.7 91 1007.7 6.0 SW 6.9 0.0 0.0
04:30 13.1 11.7 91 1007.8 5.4 S 6.9 0.0 0.0
04:31 13.1 11.7 91 1007.8 6.9 SW 6.9 0.0 0.0
04:32 13.1 11.7 91 1007.7 6.0 SW 6.9 0.0 0.0
04:33 13.1 11.7 91 1007.8 6.0 SW 6.9 0.0 0.0
04:34 13.1 11.7 91 1007.8 5.4 SW 6.9 0.0 0.0
04:36 13.1 11.7 91 1008.1 7.6 SW 7.6 0.0 0.0
04:37 13.1 11.7 91 1008.0 7.6 S 7.6 0.0 0.0
04:38 13.1 11.7 91 1008.0 7.6 S 7.6 0.0 0.0
04:39 13.2 11.8 91 1007.9 6.9 S 7.6 0.0 0.0
04:40 13.1 11.7 91 1007.8 6.9 SSW 7.6 0.0 0.0
04:41 13.2 11.8 91 1007.7 6.0 SW 7.6 0.0 0.0
04:42 13.2 11.8 91 1007.8 6.0 SW 7.6 0.0 0.0
04:43 13.1 11.7 91 1007.8 4.5 S 7.6 0.0 0.0
04:44 13.1 11.7 91 1007.9 4.5 S 7.6 0.0 0.0
04:45 13.1 11.7 91 1007.9 5.4 S 7.6 0.0 0.0
04:46 13.1 11.7 91 1007.9 5.4 S 7.6 0.0 0.0
04:47 13.2 11.8 91 1007.8 5.4 SW 7.6 0.0 0.0
04:48 13.2 11.8 91 1007.7 6.9 WSW 7.6 0.0 0.0
04:50 13.2 11.8 91 1007.7 5.4 SW 7.6 0.0 0.0
04:51 13.2 11.8 91 1007.8 8.3 SW 8.3 0.0 0.0
04:52 13.1 11.7 91 1007.8 8.3 S 8.3 0.0 0.0
04:53 13.1 11.7 91 1007.8 6.9 SW 8.3 0.0 0.0
04:54 13.1 11.7 91 1008.0 6.0 S 8.3 0.0 0.0
04:55 13.1 11.7 91 1008.0 6.0 S 8.3 0.0 0.0
04:56 13.1 11.7 91 1007.8 6.0 S 8.3 0.0 0.0
04:57 13.1 11.7 91 1007.7 7.6 SSW 8.3 0.0 0.0
04:58 13.1 11.7 91 1007.7 6.9 SW 8.3 0.0 0.0
04:59 13.1 11.7 91 1007.8 6.0 S 8.3 0.0 0.0
05:00 13.1 11.7 91 1007.6 5.4 S 8.3 0.0 0.0
05:01 13.1 11.7 91 1007.8 5.4 S 8.3 0.0 0.0
05:02 13.1 11.7 91 1007.8 5.4 S 8.3 0.0 0.0
05:04 13.1 11.7 91 1007.7 5.4 S 7.6 0.0 0.0
05:05 13.1 11.7 91 1007.7 5.4 S 7.6 0.0 0.0
05:06 13.1 11.7 91 1007.7 7.6 S 7.6 0.0 0.0
05:07 13.1 11.7 91 1007.7 7.6 SW 7.6 0.0 0.0
05:08 13.1 11.7 91 1007.6 7.6 S 7.6 0.0 0.0
05:09 13.1 11.7 91 1007.7 6.0 S 7.6 0.0 0.0
05:10 13.1 11.7 91 1007.7 6.9 S 7.6 0.0 0.0
05:11 13.1 11.7 91 1007.9 8.3 SW 8.3 0.0 0.0
05:12 13.1 11.7 91 1007.9 8.3 SW 8.3 0.0 0.0
05:13 13.1 11.7 91 1007.9 6.9 SE 8.3 0.0 0.0
05:14 13.1 11.7 91 1007.9 5.4 S 8.3 0.0 0.0
05:15 13.1 11.7 91 1007.9 5.4 SW 8.3 0.0 0.0
05:16 13.1 11.7 91 1007.7 7.6 SW 8.3 0.0 0.0
05:18 13.1 11.7 91 1007.8 6.0 SW 8.3 0.0 0.0
05:19 13.1 11.7 91 1008.0 9.2 S 9.2 0.0 0.0
05:20 13.1 11.7 91 1007.9 6.9 S 9.2 0.0 0.0
05:21 13.1 11.7 91 1007.7 5.4 S 9.2 0.0 0.0
05:22 13.1 11.7 91 1007.8 6.0 S 9.2 0.0 0.0
05:23 13.1 11.7 91 1007.8 6.0 S 9.2 0.0 0.0
05:24 13.1 11.7 91 1007.7 6.0 S 9.2 0.0 0.0
05:25 13.1 11.7 91 1007.8 7.6 S 9.2 0.0 0.0
05:26 13.1 11.7 91 1007.5 5.4 S 9.2 0.0 0.0
05:27 13.1 11.7 91 1007.6 8.3 S 9.2 0.0 0.0
05:28 13.1 11.7 91 1007.8 6.9 SW 9.2 0.0 0.0
05:29 13.1 11.7 91 1007.7 5.4 SE 9.2 0.0 0.0
05:30 13.1 11.7 91 1007.6 6.0 S 8.3 0.0 0.0
05:32 13.1 11.8 92 1007.6 6.9 S 8.3 0.0 0.0
05:33 13.1 11.8 92 1007.7 6.0 S 8.3 0.0 0.0
05:34 13.1 11.8 92 1007.6 5.4 S 8.3 0.0 0.0
05:35 13.1 11.8 92 1007.6 3.8 S 8.3 0.0 0.0
05:36 13.1 11.8 92 1007.6 3.8 S 8.3 0.0 0.0
05:37 13.1 11.8 92 1007.6 5.4 SW 8.3 0.0 0.0
05:38 13.1 11.8 92 1007.8 6.9 S 6.9 0.0 0.0
05:39 13.1 11.8 92 1007.7 6.9 SW 6.9 0.0 0.0
05:40 13.1 11.8 92 1007.6 6.9 NW 6.9 0.0 0.0
05:41 13.2 11.9 92 1007.5 5.4 S 6.9 0.0 0.0
05:42 13.2 11.9 92 1007.6 6.0 S 6.9 0.0 0.0
05:43 13.2 11.9 92 1007.7 6.0 S 6.9 0.0 0.0
05:44 13.2 11.9 92 1007.6 7.6 S 7.6 0.0 0.0
05:46 13.2 11.9 92 1007.5 3.8 S 7.6 0.0 0.0
05:47 13.2 11.9 92 1007.5 6.0 S 7.6 0.0 0.0
05:48 13.2 11.9 92 1007.6 4.5 S 7.6 0.0 0.0
05:49 13.2 11.9 92 1007.5 5.4 S 7.6 0.0 0.0
05:50 13.2 11.9 92 1007.4 6.0 SW 7.6 0.0 0.0
05:51 13.2 11.9 92 1007.4 6.0 SW 7.6 0.0 0.0
05:52 13.2 11.9 92 1007.3 6.0 SW 7.6 0.0 0.0
05:53 13.2 11.9 92 1007.5 5.4 SW 7.6 0.0 0.0
05:54 13.2 11.9 92 1007.4 6.0 SW 7.6 0.0 0.0
05:55 13.2 11.9 92 1007.6 5.4 S 7.6 0.0 0.0
05:56 13.2 11.9 92 1007.4 5.4 SSW 6.9 0.0 0.0
05:57 13.2 11.9 92 1007.5 5.4 S 6.9 0.0 0.0
05:59 13.2 11.9 92 1007.6 6.0 SW 6.9 0.0 0.0
06:00 13.2 11.9 92 1007.5 4.5 SW 6.9 0.0 0.0
06:01 13.2 11.9 92 1007.4 4.5 SW 6.9 0.0 0.0
06:02 13.3 12.0 92 1007.5 6.0 S 6.9 0.0 0.0
06:03 13.3 12.0 92 1007.6 5.4 SW 6.9 0.0 0.0
06:04 13.3 12.0 92 1007.4 6.0 SW 6.9 0.0 0.0
06:05 13.3 12.0 92 1007.4 6.0 SW 6.9 0.0 0.0
06:06 13.3 12.0 92 1007.5 5.4 SE 6.9 0.0 0.0
06:07 13.3 12.0 92 1007.4 4.5 S 6.9 0.0 0.0
06:08 13.3 12.0 92 1007.7 5.4 SW 6.9 0.0 0.0
06:09 13.3 12.0 92 1007.6 7.6 NW 7.6 0.0 0.0
06:10 13.3 12.0 92 1007.5 8.3 SW 8.3 0.0 0.0
06:11 13.3 12.0 92 1007.5 6.9 S 8.3 0.0 0.0
06:12 13.3 12.0 92 1007.6 9.2 SW 9.2 0.0 0.0
06:14 13.3 12.0 92 1007.3 5.4 S 9.2 0.0 0.0
06:15 13.3 12.0 92 1007.4 5.4 S 9.2 0.0 0.0
06:16 13.3 12.0 92 1007.5 6.0 S 9.2 0.0 0.0
06:17 13.3 12.0 92 1007.6 6.9 S 9.2 0.0 0.0
06:18 13.3 12.0 92 1007.5 6.9 S 9.2 0.0 0.0
06:19 13.3 12.0 92 1007.5 6.9 S 9.2 0.0 0.0
06:20 13.3 12.0 92 1007.4 6.9 SW 9.2 0.0 0.0
06:21 13.3 12.0 92 1007.4 4.5 S 9.2 0.0 0.0
06:22 13.3 12.0 92 1007.4 5.4 S 9.2 0.0 0.0
06:23 13.3 12.0 92 1007.4 6.9 S 7.6 0.0 0.0
06:24 13.3 12.0 92 1007.4 6.9 S 6.9 0.0 0.0
06:25 13.3 12.0 92 1007.4 7.6 SW 7.6 0.0 0.0
06:26 13.3 12.0 92 1007.6 9.8 S 9.8 0.8 0.1
06:28 13.3 12.0 92 1007.4 7.6 SW 9.8 0.8 0.1
06:29 13.3 12.0 92 1007.4 6.9 SW 9.8 0.8 0.1
06:30 13.3 12.0 92 1007.5 6.0 S 9.8 0.8 0.1
06:31 13.3 12.0 92 1007.3 6.9 S 9.8 0.0 0.1
06:32 13.3 12.0 92 1007.3 7.6 S 9.8 0.0 0.1
06:33 13.3 12.0 92 1007.2 7.6 SE 9.8 0.0 0.1
06:34 13.3 12.0 92 1007.4 9.2 S 9.8 0.0 0.1
06:35 13.3 12.0 92 1007.4 6.9 S 9.8 0.0 0.1
06:36 13.3 12.0 92 1007.5 6.0 S 9.8 0.0 0.1
06:37 13.3 12.0 92 1007.4 5.4 S 9.8 0.0 0.1
06:38 13.3 12.0 92 1007.3 6.0 SW 9.2 0.0 0.1
06:39 13.3 12.0 92 1007.3 6.0 S 9.2 0.0 0.1
06:40 13.3 12.0 92 1007.3 5.4 S 9.2 0.0 0.1
06:42 13.3 12.0 92 1007.2 5.4 S 9.2 0.0 0.1
06:43 13.3 12.0 92 1007.2 5.4 S 9.2 0.0 0.1
06:44 13.3 12.0 92 1007.2 6.9 SW 8.3 0.0 0.1
06:45 13.3 12.0 92 1007.2 6.9 SW 8.3 0.0 0.1
06:46 13.3 12.0 92 1007.2 7.6 S 8.3 0.0 0.1
06:47 13.3 12.0 92 1007.2 7.6 S 8.3 0.0 0.1
06:48 13.3 12.0 92 1007.2 6.0 SW 8.3 0.0 0.1
06:49 13.3 12.0 92 1007.1 6.0 S 8.3 0.0 0.1
06:50 13.3 12.0 92 1007.0 7.6 SE 8.3 0.8 0.1
06:51 13.3 12.0 92 1007.2 7.6 S 8.3 0.8 0.1
06:52 13.3 12.0 92 1007.1 7.6 S 8.3 0.8 0.1
06:53 13.3 12.0 92 1007.1 6.0 S 7.6 0.8 0.1
06:54 13.3 12.0 92 1007.2 6.9 S 7.6 0.8 0.1
06:56 13.2 11.9 92 1007.2 6.9 S 7.6 0.8 0.2
06:57 13.2 11.9 92 1007.1 8.3 SW 8.3 0.8 0.2
06:58 13.2 11.9 92 1006.9 6.0 SE 8.3 0.8 0.2
06:59 13.2 11.9 92 1007.2 6.0 S 8.3 0.8 0.2
07:00 13.2 11.9 92 1007.0 6.0 S 8.3 0.8 0.2
07:01 13.2 11.9 92 1007.1 6.0 S 8.3 0.0 0.2
07:02 13.2 11.9 92 1007.2 6.0 S 8.3 0.0 0.2
07:03 13.2 11.9 92 1007.4 6.0 S 8.3 0.0 0.2
07:04 13.2 11.9 92 1007.0 6.0 S 8.3 0.0 0.2
07:05 13.2 11.9 92 1007.0 6.0 S 8.3 0.0 0.2
07:06 13.1 11.8 92 1007.2 5.4 SW 8.3 2.3 0.4
07:07 13.1 11.8 92 1006.9 4.5 S 8.3 2.3 0.4
07:08 13.1 11.8 92 1007.2 5.4 WSW 6.0 2.3 0.4
07:10 13.1 11.8 92 1007.4 3.8 SW 6.9 3.0 0.5
07:11 13.1 11.8 92 1007.3 3.8 SW 6.9 1.5 0.5
07:12 13.1 11.8 92 1007.1 4.5 W 6.9 1.5 0.6
07:13 13.1 11.8 92 1007.4 6.0 S 6.9 2.3 0.6
07:14 13.1 11.8 92 1007.2 4.5 S 6.9 2.3 0.6
07:15 13.1 11.8 92 1007.2 4.5 S 6.9 2.3 0.6
07:16 13.1 11.8 92 1007.4 4.5 S 6.9 2.3 0.7
07:17 13.1 11.8 92 1007.2 4.5 SW 6.9 3.0 0.8
07:18 13.1 11.8 92 1007.4 4.5 SW 6.9 2.3 0.8
07:19 13.1 11.8 92 1007.5 6.0 SW 6.9 3.0 0.8
07:20 13.1 11.8 92 1007.2 4.5 SW 6.9 2.3 0.8
07:21 13.1 11.8 92 1007.2 6.0 S 6.0 1.5 0.9
07:22 13.1 11.8 92 1007.3 5.4 SW 6.0 1.5 0.9
07:24 13.2 11.9 92 1007.3 3.8 SE 6.0 1.5 1.0
07:25 13.2 11.9 92 1007.2 4.5 SW 6.0 2.3 1.1
07:26 13.2 11.9 92 1007.6 4.5 SW 6.0 3.0 1.1
07:27 13.2 11.9 92 1007.5 6.0 S 6.0 2.3 1.1
07:28 13.2 11.9 92 1007.5 6.0 S 6.0 2.3 1.1
07:29 13.2 11.9 92 1007.3 6.0 S 6.0 2.3 1.2
07:30 13.2 11.9 92 1007.2 5.4 SW 6.0 3.0 1.3
07:31 13.2 11.9 92 1007.3 5.4 S 6.0 2.3 1.3
07:32 13.2 11.9 92 1007.4 6.0 SW 6.0 3.0 1.3
07:33 13.2 11.9 92 1007.1 6.0 SW 6.0 2.3 1.4
07:34 13.2 11.9 92 1007.2 6.0 S 6.0 3.8 1.4
07:35 13.3 12.0 92 1007.2 5.4 S 6.0 3.0 1.5
07:36 13.3 12.0 92 1007.0 7.6 S 7.6 3.8 1.6
07:38 13.3 12.0 92 1007.2 4.5 S 7.6 4.5 1.8
07:39 13.3 12.0 92 1007.1 7.6 SE 7.6 3.8 1.8
07:40 13.3 12.0 92 1007.2 7.6 S 7.6 3.8 2.0
07:41 13.3 12.0 92 1007.0 7.6 SE 7.6 4.5 2.1
07:42 13.3 12.0 92 1007.0 6.0 S 7.6 7.6 2.5
07:43 13.3 12.0 92 1007.0 6.0 S 7.6 9.1 2.5
07:44 13.3 12.0 92 1007.0 6.0 SW 7.6 11.3 2.7
07:45 13.3 12.0 92 1006.6 7.6 S 7.6 12.9 2.9
07:46 13.4 12.1 92 1006.6 6.9 SE 7.6 15.8 3.3
07:47 13.4 12.1 92 1006.7 9.8 S 9.8 12.9 3.3
07:48 13.4 12.1 92 1006.7 7.6 S 9.8 12.1 3.5
07:49 13.4 12.1 92 1006.7 6.0 S 9.8 9.8 3.6
07:50 13.5 12.2 92 1006.5 7.6 SE 9.8 9.8 3.7
07:52 13.5 12.2 92 1006.9 8.3 S 9.8 5.3 3.8
07:53 13.5 12.2 92 1006.6 7.6 SW 9.8 3.8 3.8
07:54 13.5 12.2 92 1006.7 9.8 S 9.8 4.5 3.9
07:55 13.6 12.5 93 1006.7 10.7 S 10.7 2.3 4.0
07:56 13.6 12.5 93 1006.6 11.4 SE 11.4 3.8 4.1
07:57 13.6 12.5 93 1006.4 8.3 SE 11.4 3.8 4.1
07:58 13.6 12.5 93 1006.5 6.9 SE 11.4 4.5 4.2
07:59 13.7 12.6 93 1006.4 7.6 SE 11.4 3.0 4.2
08:00 13.7 12.6 93 1006.5 7.6 S 11.4 3.0 4.2
08:01 13.7 12.6 93 1006.5 7.6 S 11.4 1.5 4.2
08:02 13.7 12.6 93 1006.5 7.6 S 11.4 0.8 4.2
08:03 13.7 12.6 93 1006.6 7.6 S 11.4 0.0 4.2
08:04 13.7 12.6 93 1006.3 7.6 S 11.4 0.0 4.2
08:06 13.8 12.7 93 1006.6 11.4 SE 11.4 0.8 4.2
08:07 13.8 12.7 93 1006.7 11.4 SE 11.4 0.8 4.2
08:08 13.9 12.8 93 1006.6 11.4 SW 11.4 0.8 4.2
08:09 13.9 12.8 93 1006.5 11.4 S 11.4 0.8 4.2
08:10 13.9 12.8 93 1006.9 9.2 S 11.4 0.8 4.2
08:11 13.9 12.8 93 1006.9 9.2 S 11.4 0.0 4.2
08:12 13.9 12.8 93 1006.7 14.5 S 14.5 0.0 4.2
08:13 14.0 12.9 93 1006.7 10.7 S 14.5 0.0 4.2
08:14 14.0 12.9 93 1006.7 15.2 SE 15.2 0.0 4.2
08:15 14.0 12.9 93 1006.6 12.1 S 15.2 0.0 4.2
08:16 14.0 12.9 93 1006.6 12.1 SE 15.2 0.0 4.2
08:17 14.0 12.9 93 1006.6 11.4 S 15.2 0.0 4.2
08:18 14.0 13.1 94 1006.7 9.8 SE 15.2 0.0 4.2
08:20 14.0 13.1 94 1006.7 9.2 S 15.2 0.0 4.2
08:21 14.1 13.2 94 1006.8 9.2 S 15.2 0.0 4.2
08:22 14.1 13.2 94 1006.8 15.2 S 15.2 0.0 4.2
08:23 14.1 13.2 94 1006.6 13.0 SE 15.2 0.0 4.2
08:24 14.1 13.2 94 1006.4 9.8 SE 15.2 0.0 4.2
08:25 14.1 13.2 94 1006.4 9.8 SE 15.2 0.0 4.2
08:26 14.1 13.2 94 1006.7 10.7 S 15.2 0.8 4.3
08:27 14.1 13.2 94 1006.5 10.7 S 15.2 0.8 4.3
08:28 14.1 13.2 94 1006.6 9.8 SW 15.2 0.8 4.3
08:29 14.2 13.3 94 1006.5 9.2 S 15.2 0.8 4.3
08:30 14.2 13.3 94 1006.8 9.2 SW 15.2 0.8 4.3
08:31 14.2 13.3 94 1006.9 10.7 S 15.2 0.0 4.3
08:32 14.2 13.3 94 1006.6 14.5 SE 15.2 0.0 4.3
08:34 14.3 13.4 94 1006.7 10.7 SE 14.5 0.0 4.3
08:35 14.3 13.4 94 1006.7 13.0 S 14.5 0.0 4.3
08:36 14.3 13.4 94 1006.8 14.5 SE 14.5 0.0 4.3
08:37 14.3 13.4 94 1006.5 13.6 S 14.5 0.0 4.3
08:38 14.3 13.4 94 1006.6 9.8 S 14.5 0.8 4.3
08:39 14.3 13.4 94 1006.6 9.8 S 14.5 0.8 4.3
08:40 14.3 13.4 94 1006.6 9.8 E 14.5 0.8 4.3
08:41 14.4 13.5 94 1006.6 11.4 SE 14.5 0.8 4.3
08:42 14.4 13.5 94 1006.4 13.6 S 14.5 0.8 4.3
08:43 14.4 13.6 95 1006.5 15.2 S 15.2 0.0 4.3
08:44 14.4 13.6 95 1006.6 9.2 S 15.2 0.0 4.3
08:45 14.4 13.6 95 1006.4 10.7 S 15.2 0.8 4.4
08:46 14.5 13.7 95 1006.3 13.0 SE 15.2 0.8 4.4
08:48 14.5 13.7 95 1006.5 9.8 S 15.2 0.8 4.4
08:49 14.5 13.7 95 1006.6 9.8 S 15.2 0.8 4.5
08:50 14.5 13.7 95 1006.4 11.4 SE 15.2 0.8 4.5
08:51 14.5 13.7 95 1006.6 14.5 S 15.2 0.8 4.5
08:52 14.5 13.7 95 1006.5 12.1 SE 15.2 0.8 4.5
08:53 14.5 13.7 95 1006.4 11.4 S 15.2 0.8 4.5
08:54 14.6 13.8 95 1006.7 11.4 S 14.5 0.8 4.5
08:55 14.6 13.8 95 1006.6 9.2 S 14.5 0.0 4.5
08:56 14.6 13.8 95 1006.4 13.0 SW 14.5 0.8 4.5
08:57 14.6 13.8 95 1006.2 12.1 S 14.5 0.8 4.5
08:58 14.6 13.8 95 1006.6 10.7 S 14.5 0.8 4.5
08:59 14.6 13.8 95 1006.4 10.7 S 14.5 0.8 4.5
09:00 14.6 13.8 95 1006.5 14.5 S 14.5 1.5 4.6
09:02 14.6 13.8 95 1006.4 14.5 S 14.5 0.8 4.6
09:03 14.6 13.8 95 1006.4 14.5 S 14.5 0.8 4.6
09:04 14.6 13.8 95 1006.4 14.5 S 14.5 0.8 4.6
09:05 14.6 13.8 95 1006.6 14.5 S 14.5 0.0 4.6
09:06 14.7 13.9 95 1006.5 13.0 S 15.2 2.3 4.8
09:07 14.7 13.9 95 1006.5 13.0 S 15.2 2.3 4.8
09:08 14.7 13.9 95 1006.5 13.0 E 15.2 2.3 4.8
09:09 14.7 13.9 95 1006.5 9.8 S 15.2 2.3 4.8
09:10 14.7 13.9 95 1006.4 13.0 S 15.2 2.3 4.8
09:11 14.7 13.9 95 1006.3 13.0 S 15.2 0.0 4.8
09:12 14.7 13.9 95 1006.4 12.1 SW 15.2 0.0 4.8
09:13 14.8 14.0 95 1006.6 10.7 SE 15.2 0.8 4.9
09:14 14.8 14.2 96 1006.5 14.5 S 15.2 0.8 4.9
09:16 14.8 14.2 96 1006.3 12.1 SE 15.2 0.8 4.9
09:17 14.8 14.2 96 1006.4 12.1 SW 15.2 0.8 4.9
09:18 14.9 14.3 96 1006.4 12.1 S 15.2 0.0 4.9
09:19 14.9 14.3 96 1006.5 13.6 SE 15.2 0.0 4.9
09:20 14.9 14.3 96 1006.4 14.5 S 15.2 0.0 4.9
09:21 14.9 14.3 96 1006.4 14.5 S 15.2 0.0 4.9
09:22 15.0 14.4 96 1006.3 12.1 S 15.2 0.0 4.9
09:23 15.0 14.4 96 1006.3 9.8 WSW 15.2 0.0 4.9
09:24 15.0 14.4 96 1006.5 14.5 S 15.2 0.0 4.9
09:25 15.0 14.4 96 1006.3 13.6 SW 14.5 0.0 4.9
09:26 15.1 14.5 96 1006.5 13.0 S 14.5 0.0 4.9
09:27 15.1 14.5 96 1006.3 9.8 S 14.5 0.0 4.9
09:28 15.1 14.5 96 1006.3 19.0 S 19.0 0.0 4.9
09:30 15.2 14.6 96 1006.5 14.5 S 19.0 0.8 4.9
09:31 15.2 14.6 96 1006.6 14.5 SE 19.0 0.8 4.9
09:32 15.2 14.6 96 1006.4 16.8 S 19.0 0.8 4.9
09:33 15.2 14.6 96 1006.4 13.0 WSW 19.0 0.8 4.9
09:34 15.2 14.6 96 1006.3 15.9 S 19.0 0.8 4.9
09:35 15.2 14.6 96 1006.3 15.9 S 19.0 0.0 4.9
09:36 15.2 14.6 96 1006.3 15.9 SSW 19.0 0.0 4.9
09:37 15.2 14.6 96 1006.2 14.5 S 19.0 0.0 4.9
09:38 15.2 14.6 96 1006.3 14.5 S 19.0 0.0 4.9
09:39 15.2 14.6 96 1006.6 17.4 SE 19.0 0.0 4.9
09:40 15.2 14.6 96 1006.0 16.8 S 17.4 0.0 4.9
09:41 15.2 14.6 96 1006.4 16.8 SE 17.4 0.0 5.0
09:42 15.2 14.6 96 1006.1 13.6 SW 17.4 0.8 5.0
09:44 15.2 14.7 97 1006.2 17.4 S 17.4 0.8 5.0
09:45 15.2 14.7 97 1006.1 13.0 S 17.4 0.8 5.0
09:46 15.2 14.7 97 1006.3 15.9 SW 17.4 0.8 5.0
09:47 15.2 14.7 97 1006.2 15.9 S 17.4 0.0 5.0
09:48 15.2 14.7 97 1006.2 15.9 S 17.4 0.0 5.0
09:49 15.2 14.7 97 1006.3 14.5 SW 17.4 0.0 5.0
09:50 15.2 14.7 97 1006.1 13.6 SE 17.4 0.0 5.0
09:51 15.2 14.7 97 1006.3 13.6 SE 17.4 0.0 5.0
09:52 15.2 14.7 97 1006.3 13.0 SW 17.4 0.0 5.0
09:53 15.2 14.7 97 1006.1 14.5 SW 17.4 0.0 5.0
09:54 15.2 14.7 97 1006.2 12.1 S 17.4 0.0 5.0
09:55 15.2 14.7 97 1006.1 13.0 S 15.9 0.0 5.0
09:56 15.2 14.7 97 1006.1 12.1 S 15.9 0.0 5.0
09:58 15.2 14.7 97 1006.0 17.4 SW 17.4 0.0 5.0
09:59 15.2 14.7 97 1006.1 14.5 SSW 17.4 0.0 5.0
10:00 15.2 14.7 97 1006.1 14.5 SSW 17.4 0.0 5.0
10:01 15.2 14.7 97 1006.1 14.5 SSW 17.4 0.0 5.0
10:02 15.2 14.7 97 1006.1 14.5 SSW 17.4 0.0 5.0
10:03 15.2 14.7 97 1006.1 14.5 SSW 17.4 0.0 5.0
10:04 15.2 14.7 97 1006.0 14.5 SSW 17.4 0.0 5.0
10:05 15.2 14.7 97 1006.1 14.5 SSW 17.4 0.0 5.0
10:06 15.2 14.7 97 1006.1 17.4 S 17.4 0.0 5.0
10:07 15.2 14.7 97 1006.1 11.4 SW 17.4 0.0 5.0
10:08 15.2 14.7 97 1006.1 13.6 S 17.4 0.0 5.0
10:09 15.2 14.7 97 1006.1 11.4 SW 17.4 0.0 5.0
10:10 15.2 14.7 97 1006.2 14.5 SW 17.4 0.0 5.0
10:12 15.2 14.7 97 1006.2 11.4 S 17.4 0.0 5.0
10:13 15.2 14.7 97 1006.1 11.4 S 17.4 0.0 5.0
10:14 15.2 14.7 97 1006.1 14.5 S 17.4 0.8 5.0
10:15 15.2 14.7 97 1005.9 14.5 S 17.4 0.8 5.0
10:16 15.2 14.7 97 1006.2 14.5 S 17.4 0.8 5.0
10:17 15.2 14.7 97 1006.0 12.1 SW 17.4 0.8 5.0
10:18 15.2 14.7 97 1006.1 12.1 S 17.4 0.8 5.0
10:19 15.2 14.7 97 1006.1 15.9 SW 17.4 0.0 5.0
10:20 15.2 14.7 97 1006.1 13.0 SW 17.4 0.0 5.0
10:21 15.2 14.7 97 1006.2 13.0 S 17.4 0.0 5.0
10:22 15.2 14.7 97 1006.1 13.6 S 17.4 0.0 5.0
10:23 15.2 14.7 97 1006.3 11.4 SW 17.4 0.0 5.0
10:24 15.2 14.7 97 1006.1 10.7 SW 17.4 0.0 5.0
10:26 15.2 14.7 97 1006.2 14.5 SW 15.9 0.8 5.1
10:27 15.2 14.7 97 1006.3 13.0 S 15.9 0.8 5.1
10:28 15.2 14.7 97 1006.2 18.3 SW 18.3 0.8 5.1
10:29 15.2 14.7 97 1006.1 18.3 S 18.3 0.8 5.1
10:30 15.2 14.7 97 1006.1 15.9 S 18.3 0.8 5.2
10:31 15.2 14.7 97 1006.1 15.9 S 18.3 0.8 5.2
10:32 15.2 14.7 97 1006.1 16.8 S 18.3 0.8 5.2
10:33 15.2 14.7 97 1006.3 13.6 SW 18.3 0.8 5.2
10:34 15.2 14.7 97 1006.2 17.4 SW 18.3 0.8 5.2
10:35 15.2 14.7 97 1006.1 10.7 S 18.3 0.8 5.2
10:36 15.2 14.7 97 1006.1 10.7 S 18.3 0.8 5.2
10:37 15.2 14.7 97 1006.3 9.8 S 18.3 0.8 5.2
10:38 15.2 14.7 97 1006.2 11.4 S 18.3 0.8 5.2
10:40 15.2 14.7 97 1005.9 13.6 SW 17.4 0.8 5.2
10:41 15.2 14.7 97 1006.1 12.1 SW 17.4 0.0 5.2
10:42 15.2 14.7 97 1005.9 14.5 SE 17.4 0.0 5.2
10:43 15.2 14.7 97 1006.1 13.0 SE 17.4 0.0 5.2
10:44 15.2 14.7 97 1006.4 14.5 S 17.4 0.0 5.2
10:45 15.2 14.7 97 1006.4 14.5 S 17.4 0.0 5.2
10:46 15.2 14.7 97 1006.1 15.2 SW 17.4 0.0 5.2
10:47 15.2 14.7 97 1006.1 14.5 S 17.4 0.0 5.2
10:48 15.2 14.7 97 1006.0 14.5 SW 17.4 0.0 5.2
10:49 15.2 14.7 97 1006.1 15.9 S 17.4 0.0 5.2
10:50 15.2 14.7 97 1006.1 9.2 SW 15.9 0.0 5.2
10:51 15.3 14.8 97 1006.0 11.4 SW 15.9 0.0 5.2
10:52 15.3 14.8 97 1006.0 14.5 S 15.9 0.0 5.2
10:54 15.3 14.8 97 1005.9 14.5 SE 15.9 0.0 5.2
10:55 15.3 14.8 97 1005.9 14.5 SE 15.9 0.0 5.2
10:56 15.3 14.8 97 1006.1 13.6 SW 15.9 0.0 5.3
10:57 15.3 14.8 97 1006.0 14.5 WSW 15.9 0.8 5.3
10:58 15.3 14.8 97 1005.8 15.2 S 15.9 0.8 5.3
10:59 15.3 14.8 97 1005.8 15.2 S 15.9 0.8 5.3
11:00 15.4 14.9 97 1006.1 15.2 WSW 15.2 0.8 5.3
11:01 15.4 14.9 97 1006.0 15.2 WSW 15.2 0.8 5.3
11:02 15.4 14.9 97 1006.1 15.2 WSW 15.2 0.0 5.3
11:03 15.4 14.9 97 1006.0 15.2 S 15.2 0.0 5.3
11:04 15.4 14.9 97 1006.2 15.2 S 15.2 0.0 5.3
11:05 15.4 15.1 98 1005.9 12.1 S 15.2 0.0 5.3
11:06 15.5 15.2 98 1006.1 13.0 S 15.2 0.0 5.3
11:08 15.5 15.2 98 1006.1 10.7 S 15.2 0.0 5.3
11:09 15.5 15.2 98 1006.2 9.8 W 15.2 0.0 5.3
11:10 15.5 15.2 98 1006.1 15.9 S 15.9 0.8 5.4
11:11 15.5 15.2 98 1006.1 13.6 WSW 15.9 0.8 5.4
11:12 15.5 15.2 98 1006.2 14.5 S 15.9 0.8 5.4
11:13 15.5 15.2 98 1006.2 15.9 S 15.9 0.8 5.4
11:14 15.4 15.1 98 1006.2 10.7 S 15.9 0.8 5.4
11:15 15.4 15.1 98 1006.3 13.6 SW 15.9 0.0 5.4
11:16 15.4 15.1 98 1006.3 12.1 SW 15.9 0.0 5.4
11:17 15.4 15.1 98 1006.1 11.4 S 15.9 0.0 5.4
11:18 15.4 15.1 98 1006.1 12.1 SW 15.9 0.8 5.4
11:19 15.4 15.1 98 1006.1 14.5 SE 15.9 0.8 5.4
11:20 15.5 15.2 98 1006.1 10.7 S 15.9 0.8 5.4
11:21 15.5 15.2 98 1006.2 12.1 S 15.9 0.8 5.4
11:22 15.5 15.2 98 1006.2 13.0 S 15.9 0.8 5.4
11:23 15.5 15.2 98 1006.2 13.0 S 15.9 0.0 5.4
11:24 15.5 15.2 98 1006.1 13.0 S 14.5 0.0 5.4
11:26 15.5 15.2 98 1006.1 14.5 S 16.8 0.8 5.5
11:27 15.5 15.2 98 1006.4 15.2 S 16.8 0.8 5.5
11:28 15.5 15.2 98 1006.1 11.4 SE 16.8 0.8 5.5
11:29 15.5 15.2 98 1006.2 17.4 S 17.4 0.8 5.5
11:30 15.5 15.2 98 1006.1 15.9 SW 17.4 0.0 5.5
11:31 15.5 15.2 98 1006.1 15.9 SW 17.4 0.0 5.5
11:32 15.5 15.2 98 1006.3 14.5 S 17.4 0.0 5.5
11:33 15.5 15.2 98 1006.1 13.0 SW 17.4 0.0 5.5
11:34 15.5 15.2 98 1006.2 17.4 S 17.4 0.0 5.5
11:35 15.5 15.2 98 1006.0 15.9 S 17.4 0.0 5.5
11:36 15.5 15.2 98 1006.0 15.9 S 17.4 0.0 5.5
11:37 15.5 15.2 98 1006.0 16.8 SW 17.4 0.8 5.5
11:38 15.5 15.2 98 1006.1 14.5 S 17.4 0.8 5.5
11:40 15.5 15.2 98 1006.1 11.4 S 17.4 0.8 5.5
11:41 15.5 15.2 98 1006.2 11.4 SW 17.4 0.8 5.5
11:42 15.5 15.2 98 1006.2 11.4 SE 17.4 0.0 5.5
11:43 15.5 15.2 98 1006.1 17.4 SW 17.4 0.0 5.5
11:44 15.5 15.2 98 1006.0 13.0 S 17.4 0.0 5.5
11:45 15.5 15.2 98 1006.0 13.0 S 17.4 0.0 5.5
11:46 15.5 15.2 98 1006.2 15.2 S 17.4 0.0 5.5
11:47 15.5 15.2 98 1006.3 13.0 SW 17.4 0.8 5.6
11:48 15.5 15.2 98 1006.1 13.0 WSW 17.4 0.8 5.6
11:49 15.5 15.2 98 1006.1 13.6 SW 17.4 0.8 5.6
11:50 15.5 15.2 98 1006.1 13.0 S 17.4 0.8 5.6
11:51 15.5 15.2 98 1006.3 13.0 SW 17.4 0.8 5.6
11:52 15.5 15.2 98 1006.1 12.1 WSW 17.4 0.0 5.6
11:54 15.5 15.2 98 1006.2 18.3 SW 18.3 0.0 5.6
11:55 15.5 15.2 98 1006.1 18.3 SW 18.3 0.0 5.6
11:56 15.5 15.2 98 1006.2 14.5 S 18.3 0.0 5.6
11:57 15.5 15.2 98 1006.0 13.6 S 18.3 0.0 5.6
11:58 15.5 15.2 98 1006.2 14.5 S 18.3 0.0 5.6
11:59 15.5 15.2 98 1006.2 14.5 S 18.3 0.0 5.6
12:00 15.5 15.2 98 1006.3 14.5 S 18.3 0.0 5.6
12:01 15.5 15.2 98 1006.1 14.5 S 18.3 0.0 5.6
12:02 15.5 15.2 98 1006.3 14.5 S 18.3 0.0 5.6
12:03 15.5 15.2 98 1006.1 14.5 S 18.3 0.0 5.6
12:04 15.5 15.2 98 1006.0 14.5 S 18.3 0.0 5.6
12:05 15.5 15.2 98 1006.4 14.5 S 18.3 0.0 5.6
12:06 15.5 15.2 98 1006.2 15.2 NW 15.2 0.8 5.7
12:07 15.6 15.3 98 1006.3 13.6 SW 15.2 0.8 5.7
12:09 15.6 15.3 98 1006.1 13.6 S 15.2 0.8 5.7
12:10 15.6 15.3 98 1006.1 14.5 S 15.2 0.8 5.7
12:11 15.6 15.3 98 1006.1 14.5 S 15.2 0.0 5.7
12:12 15.6 15.3 98 1006.2 15.2 S 15.2 0.0 5.7
12:13 15.6 15.3 98 1006.1 16.8 S 16.8 0.0 5.7
12:14 15.6 15.3 98 1006.3 16.8 S 16.8 0.0 5.7
12:15 15.6 15.3 98 1006.2 13.6 S 16.8 0.0 5.7
12:16 15.6 15.3 98 1006.3 10.7 S 16.8 0.0 5.7
12:17 15.6 15.3 98 1006.4 13.0 SW 16.8 0.8 5.7
12:18 15.7 15.4 98 1006.1 15.9 S 16.8 0.8 5.7
12:19 15.7 15.4 98 1006.3 15.9 SE 16.8 0.8 5.7
12:20 15.7 15.4 98 1006.3 14.5 S 16.8 0.8 5.7
12:21 15.7 15.4 98 1006.3 12.1 S 16.8 0.8 5.7
12:23 15.7 15.4 98 1006.1 14.5 S 16.8 0.0 5.7
12:24 15.7 15.4 98 1006.2 14.5 S 15.9 0.0 5.7
12:25 15.7 15.4 98 1006.2 13.0 SW 15.9 0.0 5.7
12:26 15.7 15.4 98 1006.0 14.5 S 15.9 0.0 5.7
12:27 15.7 15.4 98 1006.2 14.5 S 15.9 0.0 5.7
12:28 15.7 15.4 98 1006.2 14.5 S 15.9 0.0 5.7
12:29 15.7 15.4 98 1006.3 12.1 S 15.9 0.0 5.7
12:30 15.7 15.4 98 1006.3 11.4 SW 14.5 0.0 5.7
12:31 15.8 15.5 98 1006.1 19.7 S 19.7 0.0 5.7
12:32 15.8 15.5 98 1006.2 17.4 SW 19.7 0.0 5.7
12:33 15.8 15.5 98 1006.3 14.5 SW 19.7 0.0 5.7
12:34 15.8 15.5 98 1006.3 14.5 SW 19.7 0.0 5.7
12:35 15.8 15.5 98 1006.1 13.0 SSW 19.7 0.8 5.8
12:37 15.8 15.5 98 1006.4 14.5 SSW 19.7 0.8 5.8
12:38 15.8 15.5 98 1006.1 13.6 S 19.7 0.8 5.8
12:39 15.8 15.5 98 1006.3 13.0 S 19.7 0.8 5.8
12:40 15.8 15.5 98 1006.3 13.0 SW 19.7 0.0 5.8
12:41 15.8 15.5 98 1006.2 13.6 SE 17.4 0.0 5.8
12:42 15.8 15.5 98 1006.3 15.9 S 17.4 0.0 5.8
12:43 15.8 15.5 98 1006.2 15.2 S 17.4 0.0 5.8
12:44 15.8 15.5 98 1006.4 20.6 S 20.6 0.0 5.8
12:45 15.8 15.5 98 1006.4 20.6 SW 20.6 0.0 5.8
12:46 15.8 15.5 98 1006.3 13.6 S 20.6 0.8 5.9
12:47 15.8 15.5 98 1006.3 15.9 S 20.6 0.8 5.9
12:48 15.8 15.5 98 1006.3 15.9 S 20.6 0.8 5.9
12:49 15.8 15.5 98 1006.2 21.3 SW 21.3 0.8 5.9
12:51 15.8 15.5 98 1006.2 13.0 S 21.3 0.0 5.9
12:52 15.8 15.5 98 1006.2 13.0 S 21.3 0.0 5.9
12:53 15.8 15.5 98 1006.2 14.5 SE 21.3 0.0 5.9
12:54 15.9 15.6 98 1006.4 17.4 SW 21.3 0.0 5.9
12:55 15.9 15.6 98 1006.1 15.9 S 21.3 0.0 5.9
12:56 15.9 15.6 98 1006.1 15.9 S 21.3 0.0 5.9
12:57 15.9 15.6 98 1006.1 15.9 SW 21.3 0.0 5.9
12:58 15.9 15.6 98 1006.2 17.4 S 21.3 0.0 5.9
12:59 15.9 15.6 98 1006.3 15.9 S 21.3 0.0 5.9
13:00 15.9 15.6 98 1006.4 17.4 S 18.3 0.0 5.9
13:01 15.9 15.6 98 1006.5 17.4 S 18.3 0.0 5.9
13:02 15.9 15.6 98 1006.2 17.4 S 17.4 0.0 5.9
13:03 15.9 15.6 98 1006.4 17.4 S 17.4 0.0 5.9
13:05 15.9 15.6 98 1006.3 17.4 S 17.4 0.0 5.9
13:06 15.9 15.6 98 1006.3 18.3 SE 18.3 0.0 5.9
13:07 16.0 15.7 98 1006.3 14.5 NW 18.3 0.0 5.9
13:08 16.0 15.7 98 1006.3 13.6 S 18.3 0.0 5.9
13:09 16.0 15.7 98 1006.3 15.2 SW 18.3 0.0 5.9
13:10 15.9 15.6 98 1006.4 16.8 SSW 18.3 0.0 5.9
13:11 15.9 15.6 98 1006.4 15.2 WSW 18.3 0.0 5.9
13:12 15.9 15.4 97 1006.3 14.5 S 18.3 0.0 5.9
13:13 15.9 15.4 97 1006.2 13.6 S 18.3 0.0 5.9
13:14 15.9 15.4 97 1006.4 13.6 S 18.3 0.0 5.9
13:15 15.9 15.4 97 1006.3 14.5 S 18.3 0.0 5.9
13:16 15.9 15.4 97 1006.4 14.5 S 18.3 0.0 5.9
13:17 16.0 15.7 98 1006.4 15.9 SW 18.3 0.0 5.9
13:18 16.0 15.7 98 1006.3 13.0 WSW 17.4 0.8 5.9
13:19 16.0 15.7 98 1006.4 14.5 SW 17.4 0.8 5.9
13:21 16.0 15.7 98 1006.5 13.0 S 17.4 0.8 5.9
13:22 16.0 15.7 98 1006.4 19.7 SW 19.7 0.8 5.9
13:23 16.0 15.7 98 1006.4 13.0 SW 19.7 0.0 5.9
13:24 16.0 15.7 98 1006.1 12.1 SW 19.7 0.0 5.9
13:25 16.0 15.7 98 1006.3 13.6 S 19.7 0.0 5.9
13:26 16.0 15.7 98 1006.4 15.9 S 19.7 0.0 5.9
13:27 16.0 15.7 98 1006.4 15.9 S 19.7 0.0 5.9
13:28 15.9 15.6 98 1006.4 15.2 S 19.7 0.0 5.9
13:29 15.9 15.6 98 1006.2 18.3 S 19.7 0.0 5.9
13:30 15.9 15.6 98 1006.4 13.0 SW 19.7 0.0 5.9
13:31 15.9 15.6 98 1006.2 17.4 S 19.7 0.0 5.9
13:32 15.9 15.6 98 1006.3 13.6 S 19.7 0.0 5.9
13:33 15.9 15.6 98 1006.3 13.6 S 18.3 0.0 5.9
13:35 15.9 15.6 98 1006.3 13.0 S 18.3 0.0 5.9
13:36 15.9 15.6 98 1006.2 13.0 S 18.3 0.0 5.9
13:37 15.9 15.6 98 1006.2 15.2 S 18.3 0.0 5.9
13:38 15.9 15.6 98 1006.3 9.8 SW 18.3 0.0 5.9
13:39 16.0 15.7 98 1006.2 11.4 S 17.4 0.0 5.9
13:40 16.0 15.7 98 1006.2 11.4 S 17.4 0.0 5.9
13:41 16.0 15.7 98 1006.5 12.1 SSW 17.4 0.0 5.9
13:42 16.0 15.7 98 1006.3 13.0 SW 15.2 0.0 5.9
13:43 15.9 15.6 98 1006.3 12.1 S 15.2 0.0 5.9
13:44 15.9 15.6 98 1006.4 12.1 S 15.2 0.0 5.9
13:45 15.9 15.6 98 1006.5 13.6 SE 15.2 0.0 5.9
13:46 15.9 15.6 98 1006.4 13.0 S 15.2 0.0 5.9
13:47 16.0 15.7 98 1006.3 13.0 SW 13.6 0.0 5.9
13:49 16.0 15.7 98 1006.5 14.5 S 14.5 0.0 5.9
13:50 15.9 15.6 98 1006.4 13.6 S 14.5 0.0 5.9
13:51 15.9 15.6 98 1006.4 13.6 WSW 14.5 0.0 5.9
13:52 15.9 15.6 98 1006.2 12.1 NW 14.5 0.0 5.9
13:53 15.9 15.6 98 1006.1 13.0 SW 14.5 0.0 5.9
13:54 15.9 15.6 98 1006.4 12.1 S 14.5 0.0 5.9
13:55 15.9 15.6 98 1006.3 14.5 SW 14.5 0.0 5.9
13:56 15.9 15.6 98 1006.4 13.0 SW 14.5 0.0 5.9
13:57 16.0 15.7 98 1006.1 11.4 S 14.5 0.0 5.9
13:58 16.0 15.7 98 1006.3 15.9 S 15.9 0.0 5.9
13:59 16.0 15.7 98 1006.4 19.0 S 19.0 0.0 5.9
14:00 15.9 15.6 98 1006.4 14.5 SW 19.0 0.0 5.9
14:01 15.9 15.6 98 1006.3 14.5 SW 19.0 0.0 5.9
14:02 15.9 15.6 98 1006.4 14.5 SW 19.0 0.0 5.9
14:03 15.9 15.6 98 1006.5 15.9 SW 19.0 0.0 5.9
14:04 15.9 15.6 98 1006.3 15.9 SW 19.0 0.0 5.9
14:06 15.9 15.6 98 1006.3 10.7 SE 19.0 0.0 5.9
14:07 16.0 15.7 98 1006.3 11.4 S 19.0 0.0 5.9
14:08 16.0 15.7 98 1006.5 15.9 SW 19.0 0.0 5.9
14:09 16.0 15.7 98 1006.4 13.6 S 15.9 0.0 5.9
14:10 16.0 15.7 98 1006.5 15.2 S 15.9 0.0 5.9
14:11 16.0 15.7 98 1006.5 15.2 S 15.9 0.0 5.9
14:12 16.0 15.7 98 1006.2 16.8 S 16.8 0.0 5.9
14:13 16.0 15.7 98 1006.4 14.5 S 16.8 0.0 5.9
14:14 16.0 15.7 98 1006.4 13.6 S 16.8 0.0 5.9
14:15 16.0 15.7 98 1006.3 14.5 SW 16.8 0.0 5.9
14:16 16.0 15.7 98 1006.3 12.1 S 16.8 0.0 5.9
14:17 16.1 15.8 98 1006.2 13.6 S 16.8 0.0 5.9
14:18 16.1 15.8 98 1006.4 15.2 SW 16.8 0.0 5.9
14:19 16.2 16.1 99 1006.3 12.1 SW 16.8 0.0 5.9
14:21 16.3 16.2 99 1006.5 18.3 S 18.3 0.0 5.9
14:22 16.4 16.3 99 1006.3 15.2 SW 18.3 0.0 5.9
14:23 16.4 16.3 99 1006.2 15.2 S 18.3 0.0 5.9
14:24 16.4 16.3 99 1006.4 11.4 S 18.3 0.0 5.9
14:25 16.4 16.3 99 1006.3 11.4 S 18.3 0.0 5.9
14:26 16.4 16.3 99 1006.1 14.5 SW 18.3 0.0 5.9
14:27 16.4 16.3 99 1006.1 14.5 SW 18.3 0.0 5.9
14:28 16.3 16.2 99 1006.3 13.0 S 18.3 0.0 5.9
14:29 16.3 16.2 99 1006.4 18.3 S 18.3 0.0 5.9
14:30 16.3 16.2 99 1006.4 19.0 S 19.0 0.0 5.9
14:31 16.3 16.2 99 1006.1 13.6 SW 19.0 0.0 5.9
14:32 16.3 16.2 99 1006.2 13.6 SW 19.0 0.0 5.9
14:33 16.2 16.1 99 1006.5 12.1 SW 19.0 0.0 5.9
14:34 16.2 16.1 99 1006.3 13.0 SW 19.0 0.0 5.9
14:35 16.2 16.1 99 1006.3 15.2 WSW 19.0 0.0 5.9
14:37 16.1 16.0 99 1006.4 17.4 SW 19.0 0.0 5.9
14:38 16.0 15.9 99 1006.2 13.6 SW 19.0 0.0 5.9
14:39 16.0 15.9 99 1006.3 15.9 SW 19.0 0.0 5.9
14:40 16.0 15.9 99 1006.2 15.9 S 17.4 0.0 5.9
14:41 16.0 15.9 99 1006.2 14.5 SW 17.4 0.0 5.9
14:42 16.0 15.9 99 1006.3 14.5 SW 17.4 0.0 5.9
14:43 16.0 15.9 99 1006.2 12.1 NW 17.4 0.0 5.9
14:44 16.0 15.9 99 1006.3 12.1 NW 17.4 0.0 5.9
14:45 15.9 15.8 99 1006.3 19.0 S 19.0 0.0 5.9
14:46 15.9 15.8 99 1006.4 15.2 SSW 19.0 0.0 5.9
14:47 15.9 15.8 99 1006.5 15.2 SW 19.0 0.0 5.9
14:48 15.9 15.8 99 1006.4 16.8 SW 19.0 0.0 5.9
14:49 15.8 15.7 99 1006.5 15.2 S 19.0 0.0 5.9
14:51 15.8 15.7 99 1006.3 11.4 WSW 19.0 0.0 5.9
14:52 15.8 15.7 99 1006.3 14.5 S 19.0 0.0 5.9
14:53 15.8 15.7 99 1006.3 17.4 S 19.0 0.0 5.9
14:54 15.8 15.7 99 1006.2 14.5 SE 19.0 0.0 5.9
14:55 15.8 15.7 99 1006.2 14.5 SW 17.4 0.0 5.9
14:56 15.8 15.7 99 1006.2 14.5 SW 17.4 0.0 5.9
14:57 15.8 15.7 99 1006.1 15.2 S 17.4 0.0 5.9
14:58 15.8 15.7 99 1006.4 15.9 S 17.4 0.0 5.9
14:59 15.8 15.7 99 1006.5 15.9 S 17.4 0.0 5.9
15:00 15.8 15.7 99 1006.5 17.4 WSW 17.4 0.0 5.9
15:01 15.8 15.7 99 1006.4 17.4 WSW 17.4 0.0 5.9
15:02 15.8 15.7 99 1006.3 17.4 WSW 17.4 0.0 5.9
15:03 15.8 15.7 99 1006.4 16.8 SE 17.4 0.0 5.9
15:04 15.8 15.7 99 1006.3 14.5 S 17.4 0.0 5.9
15:06 15.9 15.8 99 1006.4 15.2 SW 17.4 0.0 5.9
15:07 15.9 15.8 99 1006.2 13.6 SW 17.4 0.0 5.9
15:08 15.9 15.8 99 1006.3 15.2 S 17.4 0.0 5.9
15:09 15.9 15.8 99 1006.2 17.4 WSW 17.4 0.0 5.9
15:10 15.9 15.8 99 1006.4 15.2 SW 17.4 0.0 5.9
15:11 15.9 15.8 99 1006.4 15.2 SW 17.4 0.0 5.9
15:12 15.9 15.8 99 1006.4 16.8 SW 17.4 0.0 5.9
15:13 15.9 15.8 99 1006.4 12.1 S 17.4 0.0 5.9
15:14 15.9 15.8 99 1006.2 10.7 SW 17.4 0.0 5.9
15:15 15.9 15.8 99 1006.3 12.1 S 17.4 0.0 5.9
15:16 15.9 15.8 99 1006.3 12.1 S 17.4 0.0 5.9
15:17 15.9 15.8 99 1006.3 11.4 WSW 17.4 0.0 5.9
15:18 16.0 15.9 99 1006.3 14.5 SSW 17.4 0.0 5.9
15:19 16.0 15.9 99 1006.1 15.2 S 17.4 0.0 5.9
15:20 15.9 15.8 99 1006.3 16.8 S 17.4 0.0 5.9
15:21 15.9 15.8 99 1006.2 16.8 SE 16.8 0.0 5.9
15:22 15.9 15.8 99 1006.3 18.3 SW 18.3 0.0 5.9
15:23 15.9 15.8 99 1006.3 19.0 SW 19.0 0.0 5.9
15:24 15.9 15.8 99 1006.3 15.9 S 19.0 0.0 5.9
15:26 15.9 15.8 99 1006.3 13.0 SW 19.0 0.0 5.9
15:27 15.9 15.8 99 1006.2 14.5 SE 19.0 0.0 5.9
15:28 15.9 15.8 99 1006.0 18.3 SW 19.0 0.0 5.9
15:29 15.9 15.8 99 1006.2 15.2 S 19.0 0.0 5.9
15:30 15.9 15.8 99 1006.3 9.8 SSW 19.0 0.0 5.9
15:31 16.0 15.9 99 1006.4 13.6 SW 19.0 0.0 5.9
15:32 16.0 15.9 99 1006.4 13.6 SW 19.0 0.0 5.9
15:33 16.0 15.9 99 1006.2 15.2 SW 19.0 0.0 5.9
15:34 16.0 15.9 99 1006.0 15.2 S 18.3 0.0 5.9
15:35 16.0 15.9 99 1006.3 14.5 S 18.3 0.0 5.9
15:36 16.1 16.0 99 1006.3 13.0 SW 18.3 0.0 5.9
15:37 16.2 16.1 99 1006.0 12.1 S 18.3 0.0 5.9
15:38 16.3 16.2 99 1006.2 13.0 SE 18.3 0.0 5.9
15:39 16.3 16.2 99 1006.3 11.4 S 15.2 0.0 5.9
15:40 16.3 16.2 99 1006.3 19.0 S 19.0 0.0 5.9
15:42 16.2 16.1 99 1006.1 19.0 S 20.6 0.0 5.9
15:43 16.2 16.1 99 1006.4 19.0 S 20.6 0.0 5.9
15:44 16.2 16.1 99 1006.2 13.6 SW 20.6 0.0 5.9
15:45 16.2 16.1 99 1006.2 16.8 S 20.6 0.0 5.9
15:46 16.2 16.1 99 1006.3 19.0 SW 20.6 0.0 5.9
15:47 16.2 16.1 99 1006.3 19.0 SW 20.6 0.0 5.9
15:48 16.2 16.1 99 1005.9 19.0 SE 20.6 0.0 5.9
15:49 16.1 16.0 99 1006.2 16.8 SE 20.6 0.0 5.9
15:50 16.1 16.0 99 1006.0 15.9 S 20.6 0.0 5.9
15:51 16.1 16.0 99 1005.9 15.2 SW 20.6 0.0 5.9
15:52 16.1 16.0 99 1006.2 13.6 NW 19.0 0.0 5.9
15:53 16.1 16.0 99 1006.1 17.4 SW 19.0 0.0 5.9
15:54 16.1 16.0 99 1006.1 17.4 SW 19.0 0.0 5.9
15:55 16.0 15.9 99 1006.3 14.5 SW 19.0 0.0 5.9
15:57 16.0 15.9 99 1006.2 16.8 SW 19.0 0.0 5.9
15:58 16.0 15.9 99 1006.1 15.9 SW 17.4 0.0 5.9
15:59 16.0 15.9 99 1006.2 16.8 SE 17.4 0.0 5.9
16:00 16.0 15.9 99 1006.0 16.8 SE 17.4 0.0 5.9
16:01 16.0 15.9 99 1006.1 16.8 SE 17.4 0.0 5.9
16:02 16.0 15.9 99 1006.2 16.8 SE 17.4 0.0 5.9
16:03 15.9 15.8 99 1006.1 17.4 S 17.4 0.0 5.9
16:04 15.9 15.8 99 1005.9 15.9 SW 17.4 0.0 5.9
16:05 15.9 15.8 99 1006.0 16.8 S 17.4 0.0 5.9
16:06 15.9 15.8 99 1005.9 15.9 SW 17.4 0.0 5.9
16:07 15.9 15.8 99 1005.8 16.8 S 17.4 0.0 5.9
16:08 15.9 15.8 99 1005.9 15.9 SW 17.4 0.0 5.9
16:09 15.9 15.8 99 1006.0 14.5 S 17.4 0.0 5.9
16:11 15.9 15.8 99 1005.9 16.8 S 17.4 0.0 5.9
16:12 15.9 15.8 99 1006.1 16.8 SW 17.4 0.0 5.9
16:13 15.9 15.8 99 1005.9 16.8 S 16.8 0.0 5.9
16:14 15.9 15.8 99 1005.9 18.3 S 18.3 0.0 5.9
16:15 15.9 15.8 99 1006.0 16.8 WSW 18.3 0.0 5.9
16:16 15.9 15.8 99 1006.0 16.8 WSW 18.3 0.0 5.9
16:17 15.9 15.8 99 1005.8 15.2 S 18.3 0.0 5.9
16:18 15.9 15.8 99 1005.9 19.0 SW 19.0 0.0 5.9
16:19 15.9 15.8 99 1006.0 15.2 S 19.0 0.0 5.9
16:20 15.9 15.8 99 1005.9 15.9 S 19.0 0.0 5.9
16:21 15.9 15.8 99 1006.0 17.4 SE 19.0 0.0 5.9
16:22 15.9 15.8 99 1006.0 16.8 W 19.0 0.0 5.9
16:23 15.9 15.8 99 1005.7 14.5 W 19.0 0.0 5.9
16:25 15.9 15.8 99 1005.8 15.2 S 19.7 0.0 5.9
16:26 15.9 15.8 99 1005.7 18.3 SW 19.7 0.0 5.9
16:27 15.8 15.7 99 1005.9 19.0 S 19.7 0.0 5.9
16:28 15.8 15.7 99 1005.8 15.9 S 19.7 0.0 5.9
16:29 15.8 15.7 99 1005.8 16.8 SW 19.7 0.0 5.9
16:30 15.8 15.7 99 1006.0 16.8 S 19.7 0.0 5.9
16:31 15.8 15.7 99 1006.0 15.9 SE 19.7 0.0 5.9
16:32 15.8 15.7 99 1005.8 19.0 SW 19.7 0.0 5.9
16:33 15.8 15.7 99 1005.9 14.5 SW 19.7 0.0 5.9
16:34 15.8 15.7 99 1005.6 14.5 SE 19.7 0.0 5.9
16:35 15.8 15.7 99 1005.7 16.8 SW 19.0 0.0 5.9
16:36 15.8 15.7 99 1005.8 14.5 S 19.0 0.0 5.9
16:37 15.8 15.7 99 1005.8 10.7 E 19.0 0.0 5.9
16:38 15.8 15.7 99 1005.7 13.0 S 19.0 0.0 5.9
16:40 15.9 15.8 99 1005.7 19.7 S 19.7 0.0 5.9
16:41 15.9 15.8 99 1005.7 19.7 SW 19.7 0.0 5.9
16:42 15.8 15.7 99 1005.8 15.9 S 19.7 0.0 5.9
16:43 15.8 15.7 99 1005.5 15.9 S 19.7 0.0 5.9
16:44 15.7 15.6 99 1005.8 20.6 S 20.6 0.0 5.9
16:45 15.7 15.6 99 1005.8 20.6 S 20.6 0.0 5.9
16:46 15.7 15.6 99 1005.9 14.5 SSW 20.6 0.0 5.9
16:47 15.7 15.6 99 1005.7 19.0 S 20.6 0.0 5.9
16:48 15.6 15.5 99 1005.7 19.0 S 20.6 0.0 5.9
16:49 15.7 15.6 99 1005.7 14.5 S 20.6 0.0 5.9
16:50 15.7 15.6 99 1005.6 15.9 SW 20.6 0.0 5.9
16:51 15.7 15.6 99 1005.6 19.7 S 20.6 0.0 5.9
16:52 15.6 15.5 99 1005.7 18.3 E 20.6 0.0 5.9
16:54 15.6 15.5 99 1005.7 15.9 S 20.6 0.0 5.9
16:55 15.5 15.4 99 1005.5 18.3 SW 19.7 0.0 5.9
16:56 15.5 15.4 99 1005.6 18.3 SW 19.7 0.0 5.9
16:57 15.5 15.4 99 1005.7 19.0 S 19.7 0.0 5.9
16:58 15.5 15.4 99 1005.7 13.0 SW 19.7 0.0 5.9
16:59 15.5 15.4 99 1005.7 13.0 SW 19.7 0.0 5.9
17:00 15.5 15.4 99 1005.6 19.0 SE 19.7 0.0 5.9
17:01 15.5 15.4 99 1005.7 19.0 SE 19.7 0.0 5.9
17:02 15.5 15.4 99 1005.7 19.0 SE 19.0 0.0 5.9
17:03 15.4 15.3 99 1005.8 19.0 SE 19.0 0.0 5.9
17:04 15.4 15.3 99 1005.7 15.2 SE 19.0 0.0 5.9
17:05 15.4 15.3 99 1005.5 16.8 SW 19.0 0.0 5.9
17:06 15.4 15.3 99 1005.6 19.0 SW 19.0 0.0 5.9
17:08 15.3 15.2 99 1005.6 19.0 S 19.0 0.0 5.9
17:09 15.3 15.2 99 1005.5 23.5 S 23.5 0.0 5.9
17:10 15.3 15.2 99 1005.6 21.3 SE 23.5 0.0 5.9
17:11 15.3 15.2 99 1005.7 15.9 SW 23.5 0.0 5.9
17:12 15.3 15.2 99 1005.7 19.7 WSW 23.5 0.0 5.9
17:13 15.3 15.2 99 1005.7 19.7 S 23.5 0.0 5.9
17:14 15.2 15.1 99 1005.4 17.4 SW 23.5 0.0 5.9
17:15 15.2 15.1 99 1005.7 16.8 SW 23.5 0.0 5.9
17:16 15.2 15.1 99 1005.6 15.9 SE 23.5 0.0 5.9
17:17 15.2 15.1 99 1005.5 22.1 S 23.5 0.0 5.9
17:18 15.2 15.1 99 1005.7 15.9 SW 23.5 0.0 5.9
17:19 15.1 15.0 99 1005.7 20.6 SW 23.5 0.0 5.9
17:20 15.1 15.0 99 1005.8 20.6 SW 23.5 0.0 5.9
17:21 15.1 15.0 99 1005.6 19.7 S 22.1 0.0 5.9
17:22 15.1 15.0 99 1005.6 19.7 S 22.1 0.0 5.9
17:23 15.0 14.9 99 1005.7 18.3 WSW 22.1 0.0 5.9
17:24 15.0 14.9 99 1005.8 21.3 S 22.1 0.0 5.9
17:26 15.0 14.9 99 1005.6 15.9 SW 22.1 0.0 5.9
17:27 15.0 14.9 99 1005.7 19.0 SW 21.3 0.0 5.9
17:28 15.0 14.9 99 1005.5 18.3 S 21.3 0.0 5.9
17:29 15.0 14.9 99 1005.5 18.3 WSW 21.3 0.0 5.9
17:30 15.0 14.9 99 1005.7 15.9 S 21.3 0.0 5.9
17:31 15.0 14.9 99 1005.7 15.9 SW 21.3 0.0 5.9
17:32 15.0 14.9 99 1005.7 15.9 SW 21.3 0.0 5.9
17:33 15.0 14.9 99 1005.6 20.6 SSW 21.3 0.0 5.9
17:34 15.0 14.9 99 1005.5 22.8 SE 22.8 0.0 5.9
17:35 15.0 14.9 99 1005.5 22.8 SE 22.8 0.0 5.9
17:36 15.0 14.9 99 1005.6 22.8 SE 22.8 0.0 5.9
17:37 14.9 14.8 99 1005.5 15.9 S 22.8 0.0 5.9
17:38 14.9 14.8 99 1005.5 15.2 SW 22.8 0.0 5.9
17:39 14.9 14.8 99 1005.4 19.7 S 22.8 0.0 5.9
17:40 14.8 14.7 99 1005.3 19.7 S 22.8 0.0 5.9
17:41 14.8 14.7 99 1005.4 18.3 SW 22.8 0.0 5.9
17:43 14.8 14.7 99 1005.4 17.4 S 22.8 0.0 5.9
17:44 14.8 14.7 99 1005.5 19.0 SW 22.8 0.0 5.9
17:45 14.8 14.7 99 1005.3 18.3 S 22.8 0.0 5.9
17:46 14.8 14.7 99 1005.3 16.8 S 19.7 0.0 5.9
17:47 14.8 14.7 99 1005.3 16.8 SW 19.7 0.0 5.9
17:48 14.8 14.7 99 1005.3 17.4 S 19.7 0.0 5.9
17:49 14.9 14.8 99 1005.1 11.4 S 19.7 0.0 5.9
17:50 14.9 14.8 99 1005.3 15.2 SW 19.0 0.0 5.9
17:51 14.9 14.8 99 1005.3 15.2 SW 19.0 0.0 5.9
17:52 14.9 14.8 99 1005.3 14.5 S 19.0 0.0 5.9
17:53 14.9 14.8 99 1005.5 13.6 SW 19.0 0.0 5.9
17:54 14.9 14.8 99 1005.4 13.6 SE 19.0 0.0 5.9
17:55 15.0 14.9 99 1005.5 13.6 S 18.3 0.0 5.9
17:56 15.0 14.9 99 1005.5 12.1 S 17.4 0.0 5.9
17:57 15.0 14.9 99 1005.4 15.9 S 17.4 0.0 5.9
17:58 15.0 14.9 99 1005.2 15.2 S 17.4 0.0 5.9
18:00 15.1 15.0 99 1005.1 15.9 SE 15.9 0.0 5.9
18:01 15.1 15.0 99 1005.3 15.9 SE 15.9 0.0 5.9
18:02 15.1 15.0 99 1005.3 14.5 S 15.9 0.0 5.9
18:03 15.2 15.1 99 1005.2 15.2 S 15.9 0.0 5.9
18:04 15.2 15.1 99 1005.1 18.3 SSW 18.3 0.0 5.9
18:05 15.1 15.0 99 1005.5 17.4 SE 18.3 0.0 5.9
18:10 15.1 15.0 99 1005.5 15.2 S 18.3 0.0 5.9
18:11 15.1 15.0 99 1005.3 17.4 SW 18.3 0.0 5.9
18:12 15.1 15.0 99 1005.3 17.4 SW 18.3 0.0 5.9
18:13 15.0 14.9 99 1005.5 19.7 SSW 19.7 0.0 5.9
18:14 15.0 14.9 99 1005.4 19.7 S 19.7 0.0 5.9
18:15 15.1 15.0 99 1005.3 15.9 S 19.7 0.0 5.9
18:16 15.1 15.0 99 1005.3 20.6 SW 20.6 0.0 5.9
18:17 15.2 15.1 99 1005.4 20.6 S 20.6 0.0 5.9
18:18 15.2 15.1 99 1005.5 16.8 S 20.6 0.0 5.9
18:19 15.2 15.1 99 1005.4 16.8 S 20.6 0.0 5.9
18:20 15.2 15.1 99 1005.2 12.1 S 20.6 0.0 5.9
18:22 15.3 15.2 99 1005.2 15.2 S 20.6 0.0 5.9
18:23 15.3 15.2 99 1005.5 15.2 SE 20.6 0.0 5.9
18:24 15.3 15.2 99 1005.5 17.4 SW 20.6 0.0 5.9
18:25 15.3 15.2 99 1005.2 17.4 SSW 20.6 0.0 5.9
18:26 15.2 15.1 99 1005.3 17.4 S 20.6 0.0 5.9
18:27 15.2 15.1 99 1005.3 17.4 S 20.6 0.0 5.9
18:28 15.2 15.1 99 1005.4 15.2 S 17.4 0.0 5.9
18:29 15.2 15.1 99 1005.3 13.6 SW 17.4 0.0 5.9
18:30 15.2 15.1 99 1005.3 13.0 SW 17.4 0.0 5.9
18:31 15.2 15.1 99 1005.4 11.4 SW 17.4 0.0 5.9
18:32 15.2 15.1 99 1005.4 10.7 SSW 17.4 0.0 5.9
18:33 15.2 14.9 98 1005.4 15.2 SW 17.4 0.0 5.9
18:34 15.2 14.9 98 1005.3 15.2 SW 17.4 0.0 5.9
18:35 15.2 14.9 98 1005.3 15.2 SW 17.4 0.0 5.9
18:36 15.1 14.8 98 1005.3 15.9 SW 17.4 0.0 5.9
18:38 15.1 14.8 98 1005.2 16.8 S 16.8 0.0 5.9
18:39 15.1 14.8 98 1005.4 17.4 SW 17.4 0.0 5.9
18:40 15.1 14.8 98 1005.4 17.4 SW 17.4 0.0 5.9
18:41 15.1 14.8 98 1005.3 15.9 WSW 17.4 0.0 5.9
18:42 15.0 14.5 97 1005.3 11.4 S 17.4 0.0 5.9
18:43 15.0 14.5 97 1004.9 14.5 S 17.4 0.0 5.9
18:44 15.0 14.5 97 1004.9 14.5 S 17.4 0.0 5.9
18:45 15.0 14.5 97 1005.5 12.1 S 17.4 0.0 5.9
18:46 15.0 14.5 97 1005.3 10.7 SW 17.4 0.0 5.9
18:47 15.0 14.5 97 1005.2 11.4 SW 17.4 0.0 5.9
18:48 15.0 14.5 97 1005.3 9.2 WSW 17.4 0.0 5.9
18:49 15.0 14.5 97 1005.0 9.2 S 17.4 0.0 5.9
18:50 15.1 14.6 97 1005.4 13.0 SW 17.4 0.0 5.9
18:51 15.1 14.6 97 1005.2 13.0 S 15.9 0.0 5.9
18:52 15.1 14.6 97 1005.6 13.0 S 15.2 0.0 5.9
18:53 15.0 14.4 96 1005.4 13.0 SE 15.2 0.0 5.9
18:54 15.0 14.4 96 1005.5 11.4 S 15.2 0.0 5.9
18:55 15.0 14.4 96 1005.4 9.8 S 15.2 0.0 5.9
18:56 15.0 14.4 96 1005.3 11.4 SW 15.2 0.0 5.9
18:57 15.0 14.4 96 1005.3 13.6 S 15.2 0.0 5.9
18:59 15.0 14.4 96 1005.3 13.6 S 15.2 0.0 5.9
19:00 15.0 14.4 96 1005.2 13.6 S 15.2 0.0 5.9
19:01 15.0 14.4 96 1005.3 13.6 S 15.2 0.0 5.9
19:02 15.0 14.4 96 1005.3 13.6 S 15.2 0.0 5.9
19:03 15.0 14.4 96 1005.3 13.6 S 14.5 0.0 5.9
19:04 15.0 14.4 96 1005.5 13.6 S 14.5 0.0 5.9
19:05 15.0 14.4 96 1005.4 13.6 S 14.5 0.0 5.9
19:06 14.8 14.0 95 1005.1 17.4 S 17.4 0.0 5.9
19:07 14.8 14.0 95 1005.5 15.9 S 17.4 0.0 5.9
19:08 14.7 13.9 95 1005.3 14.5 S 17.4 0.0 5.9
19:09 14.7 13.9 95 1005.3 16.8 SW 17.4 0.0 5.9
19:10 14.7 13.8 94 1005.3 17.4 S 17.4 0.0 5.9
19:11 14.7 13.8 94 1005.3 17.4 S 17.4 0.0 5.9
19:12 14.6 13.7 94 1005.2 14.5 SW 17.4 0.0 5.9
19:13 14.6 13.7 94 1005.5 13.6 S 17.4 0.0 5.9
19:14 14.6 13.7 94 1005.5 10.7 S 17.4 0.0 5.9
19:15 14.6 13.7 94 1005.3 13.6 S 17.4 0.0 5.9
19:16 14.6 13.7 94 1005.2 18.3 S 18.3 0.0 5.9
19:17 14.6 13.7 94 1005.3 18.3 SW 18.3 0.0 5.9
19:18 14.5 13.6 94 1005.3 18.3 S 18.3 0.0 5.9
19:19 14.5 13.6 94 1005.5 18.3 S 18.3 0.0 5.9
19:20 14.5 13.6 94 1005.0 13.0 SW 18.3 0.0 5.9
19:21 14.5 13.6 94 1005.1 13.6 S 18.3 0.0 5.9
19:22 14.5 13.6 94 1005.3 13.6 SW 18.3 0.0 5.9
19:23 14.5 13.6 94 1005.2 13.6 S 18.3 0.0 5.9
19:24 14.5 13.6 94 1005.3 13.0 SW 18.3 0.0 5.9
19:25 14.5 13.6 94 1005.4 13.0 S 18.3 0.0 5.9
19:26 14.5 13.6 94 1005.4 13.6 SW 18.3 0.0 5.9
19:28 14.5 13.6 94 1005.5 10.7 S 18.3 0.0 5.9
19:29 14.5 13.6 94 1005.3 12.1 S 17.4 0.0 5.9
19:30 14.5 13.6 94 1005.4 9.2 S 17.4 0.0 5.9
19:31 14.5 13.6 94 1005.2 9.2 S 13.6 0.0 5.9
19:32 14.5 13.6 94 1005.3 11.4 SSW 13.6 0.0 5.9
19:33 14.5 13.6 94 1005.4 12.1 SW 13.6 0.0 5.9
19:34 14.5 13.6 94 1005.5 11.4 SW 13.6 0.0 5.9
19:35 14.5 13.6 94 1005.5 15.2 S 15.2 0.0 5.9
19:36 14.4 13.5 94 1005.4 13.6 S 15.2 0.0 5.9
19:37 14.4 13.5 94 1005.4 16.8 SW 16.8 0.0 5.9
19:38 14.4 13.5 94 1005.4 14.5 S 16.8 0.0 5.9
19:39 14.4 13.5 94 1005.5 13.6 S 16.8 0.0 5.9
19:40 14.4 13.5 94 1005.7 13.6 SE 16.8 0.0 5.9
19:41 14.4 13.5 94 1005.3 10.7 S 16.8 0.0 5.9
19:42 14.4 13.5 94 1005.4 10.7 S 16.8 0.0 5.9
19:44 14.4 13.5 94 1005.5 13.0 S 16.8 0.0 5.9
19:45 14.4 13.5 94 1005.4 12.1 S 16.8 0.0 5.9
19:46 14.4 13.5 94 1005.3 12.1 S 16.8 0.0 5.9
19:47 14.4 13.5 94 1005.6 11.4 S 14.5 0.0 5.9
19:48 14.4 13.5 94 1005.6 14.5 WSW 14.5 0.0 5.9
19:49 14.4 13.5 94 1005.4 14.5 S 14.5 0.0 5.9
19:50 14.4 13.5 94 1005.4 13.0 SW 14.5 0.0 5.9
19:51 14.4 13.5 94 1005.6 11.4 S 14.5 0.0 5.9
19:52 14.4 13.5 94 1005.3 12.1 SW 14.5 0.0 5.9
19:53 14.3 13.4 94 1005.6 11.4 SW 14.5 0.0 5.9
19:54 14.3 13.4 94 1005.5 17.4 WSW 17.4 0.0 5.9
19:55 14.3 13.4 94 1005.5 16.8 S 17.4 0.0 5.9
19:56 14.3 13.4 94 1005.5 16.8 S 17.4 0.0 5.9
19:57 14.3 13.4 94 1005.3 11.4 S 17.4 0.0 5.9
19:59 14.3 13.4 94 1005.5 10.7 SW 17.4 0.0 5.9
20:00 14.3 13.4 94 1005.5 10.7 SW 17.4 0.0 5.9
20:01 14.3 13.4 94 1005.7 10.7 SW 17.4 0.0 5.9
20:02 14.3 13.4 94 1005.6 10.7 SW 17.4 0.0 5.9
20:03 14.3 13.4 94 1005.6 10.7 SW 17.4 0.0 5.9
20:04 14.3 13.4 94 1005.6 10.7 SW 17.4 0.0 5.9
20:05 14.3 13.4 94 1005.4 10.7 SW 16.8 0.0 5.9
20:06 14.2 13.3 94 1005.7 16.8 S 16.8 0.0 5.9
20:07 14.2 13.3 94 1005.4 15.2 SW 16.8 0.0 5.9
20:08 14.2 13.3 94 1005.5 15.2 S 16.8 0.0 5.9
20:09 14.2 13.3 94 1005.5 15.9 SW 16.8 0.0 5.9
20:10 14.2 13.1 93 1005.6 14.5 SW 16.8 0.0 5.9
20:11 14.2 13.1 93 1005.5 13.6 S 16.8 0.0 5.9
20:12 14.2 13.1 93 1005.5 11.4 SSW 16.8 0.0 5.9
20:14 14.1 13.0 93 1005.5 14.5 W 16.8 0.0 5.9
20:15 14.1 13.0 93 1005.5 14.5 W 16.8 0.0 5.9
20:16 14.1 13.0 93 1005.6 9.2 S 15.9 0.0 5.9
20:17 14.1 13.0 93 1005.4 12.1 S 15.9 0.0 5.9
20:18 14.1 13.0 93 1005.8 13.0 S 15.9 0.0 5.9
20:19 14.1 13.0 93 1005.8 13.0 S 15.9 0.0 5.9
20:20 14.1 13.0 93 1005.4 12.1 SW 15.2 0.0 5.9
20:21 14.1 13.0 93 1005.8 15.9 WSW 15.9 0.0 5.9
20:22 14.1 13.0 93 1005.6 13.0 S 15.9 0.0 5.9
20:23 14.1 13.0 93 1005.4 13.0 SSW 15.9 0.0 5.9
20:24 14.1 13.0 93 1005.4 13.0 SSW 15.9 0.0 5.9
20:25 14.1 13.0 93 1005.6 18.3 S 18.3 0.0 5.9
20:26 14.1 13.0 93 1005.6 11.4 S 18.3 0.0 5.9
20:28 14.1 13.0 93 1005.5 13.0 S 18.3 0.0 5.9
20:29 14.1 13.0 93 1005.4 13.0 S 18.3 0.0 5.9
20:30 14.1 13.0 93 1005.6 13.0 S 18.3 0.0 5.9
20:31 14.1 13.0 93 1005.7 13.0 S 18.3 0.0 5.9
20:32 14.1 13.0 93 1005.6 9.2 S 18.3 0.0 5.9
20:33 14.1 13.0 93 1005.8 9.8 S 18.3 0.0 5.9
20:45 14.0 12.9 93 1005.6 12.1 S 15.9 0.0 5.9
20:46 14.0 12.9 93 1005.6 9.8 S 15.9 0.0 5.9
20:47 14.0 12.9 93 1005.5 11.4 S 15.9 0.0 5.9
20:48 14.0 12.9 93 1005.6 13.0 S 15.9 0.0 5.9
20:49 13.9 12.8 93 1005.4 11.4 SSW 15.9 0.0 5.9
20:51 13.9 12.8 93 1005.4 12.1 S 15.9 0.0 5.9
20:52 13.9 12.8 93 1005.4 13.0 S 14.5 0.0 5.9
20:53 13.9 12.8 93 1005.7 13.0 S 14.5 0.0 5.9
20:54 13.9 12.8 93 1005.6 12.1 SW 14.5 0.0 5.9
20:55 13.9 12.8 93 1005.6 10.7 S 13.6 0.0 5.9
20:56 13.9 12.8 93 1005.6 10.7 S 13.6 0.0 5.9
20:57 13.9 12.8 93 1005.5 9.2 SW 13.6 0.0 5.9
20:58 13.9 12.8 93 1005.6 9.2 SW 13.6 0.0 5.9
20:59 13.9 12.8 93 1005.5 12.1 S 13.6 0.0 5.9
21:00 13.9 12.8 93 1005.6 13.6 NE 13.6 0.0 5.9
21:01 13.9 12.8 93 1005.7 13.6 NE 13.6 0.0 5.9
21:02 13.9 12.8 93 1005.4 13.6 NE 13.6 0.0 5.9
21:03 13.9 12.8 93 1005.6 13.6 NE 13.6 0.0 5.9
21:05 13.9 12.8 93 1005.6 13.6 NE 13.6 0.0 5.9
21:06 13.9 12.8 93 1005.6 13.0 SW 15.2 0.0 5.9
21:07 13.9 12.8 93 1005.6 11.4 S 15.2 0.0 5.9
21:08 13.9 12.8 93 1005.6 10.7 SW 15.2 0.0 5.9
21:09 13.9 12.8 93 1005.4 13.0 SW 15.2 0.0 5.9
21:10 13.9 12.8 93 1005.6 13.0 S 15.2 0.0 5.9
21:11 13.9 12.8 93 1005.4 11.4 S 15.2 0.0 5.9
21:12 13.9 12.8 93 1005.5 14.5 SW 15.2 0.0 5.9
21:13 13.9 12.8 93 1005.6 11.4 S 15.2 0.0 5.9
21:14 13.9 12.8 93 1005.5 13.0 SW 15.2 0.0 5.9
21:15 13.9 12.8 93 1005.5 14.5 S 15.2 0.0 5.9
21:16 13.9 12.8 93 1005.4 14.5 S 15.2 0.0 5.9
21:17 13.9 12.8 93 1005.3 11.4 SE 14.5 0.0 5.9
21:18 13.9 12.8 93 1005.6 13.6 SSW 14.5 0.0 5.9
21:19 13.9 12.8 93 1005.4 10.7 SW 14.5 0.0 5.9
21:20 13.9 12.8 93 1005.6 10.7 S 14.5 0.0 5.9
21:21 13.9 12.8 93 1005.5 11.4 S 14.5 0.0 5.9
21:22 13.9 12.8 93 1005.5 9.2 SE 14.5 0.0 5.9
21:23 13.9 12.8 93 1005.5 12.1 WSW 14.5 0.0 5.9
21:24 13.9 12.8 93 1005.4 13.0 S 14.5 0.0 5.9
21:25 13.9 12.8 93 1005.4 12.1 S 14.5 0.0 5.9
21:26 13.9 12.8 93 1005.7 13.0 S 13.6 0.0 5.9
21:28 13.9 12.8 93 1005.4 12.1 SW 13.0 0.0 5.9
21:29 13.9 12.8 93 1005.5 13.0 S 13.0 0.0 5.9
21:30 13.9 12.8 93 1005.4 14.5 SSW 14.5 0.0 5.9
21:31 13.9 12.8 93 1005.4 10.7 S 14.5 0.0 5.9
21:32 13.9 12.8 93 1005.5 10.7 S 14.5 0.0 5.9
21:33 13.9 12.8 93 1005.6 11.4 SW 14.5 0.0 5.9
21:34 13.9 12.8 93 1005.4 10.7 SW 14.5 0.0 5.9
21:35 13.9 12.8 93 1005.5 9.8 S 14.5 0.0 5.9
21:36 13.9 12.8 93 1005.5 11.4 SE 14.5 0.0 5.9
21:37 13.9 12.8 93 1005.5 10.7 SE 14.5 0.0 5.9
21:38 13.9 12.8 93 1005.5 10.7 S 14.5 0.0 5.9
21:39 13.9 12.8 93 1005.5 9.8 S 14.5 0.0 5.9
21:40 13.9 12.8 93 1005.6 12.1 SE 12.1 0.0 5.9
21:42 13.9 12.8 93 1005.4 13.0 SW 13.0 0.0 5.9
21:43 13.9 13.0 94 1005.5 10.7 S 13.0 0.0 5.9
21:44 13.9 13.0 94 1005.5 9.8 S 13.0 0.0 5.9
21:45 13.9 13.0 94 1005.7 13.6 S 13.6 0.0 5.9
21:46 13.9 13.0 94 1005.5 13.0 SW 13.6 0.0 5.9
21:47 13.9 13.0 94 1005.5 13.0 S 13.6 0.0 5.9
21:48 13.9 13.0 94 1005.5 13.0 SW 13.6 0.0 5.9
21:49 13.9 13.0 94 1005.3 14.5 S 14.5 0.0 5.9
21:50 13.9 13.0 94 1005.6 12.1 SW 14.5 0.0 5.9
21:51 13.9 13.0 94 1005.7 11.4 S 14.5 0.0 5.9
21:52 13.9 13.0 94 1005.6 12.1 S 14.5 0.0 5.9
21:53 13.9 13.0 94 1005.6 9.2 SSW 14.5 0.0 5.9
21:54 13.9 13.0 94 1005.7 13.0 S 14.5 0.0 5.9
21:56 13.9 13.0 94 1005.6 12.1 S 14.5 0.0 5.9
21:57 13.9 13.0 94 1005.7 12.1 S 14.5 0.0 5.9
21:58 13.9 13.0 94 1005.6 11.4 S 14.5 0.0 5.9
21:59 13.9 13.0 94 1005.6 13.0 S 13.0 0.0 5.9
22:00 13.9 13.0 94 1005.5 13.0 S 13.0 0.0 5.9
22:01 13.9 13.0 94 1005.7 13.0 S 13.0 0.0 5.9
22:02 13.9 13.0 94 1005.6 13.0 S 13.0 0.0 5.9
22:03 13.9 13.0 94 1005.6 13.0 S 13.0 0.0 5.9
22:04 13.9 13.0 94 1006.0 13.0 S 13.0 0.0 5.9
22:05 13.9 13.0 94 1005.7 13.0 S 13.0 0.0 5.9
22:06 13.9 13.0 94 1005.7 13.0 S 13.0 0.0 5.9
22:07 13.9 13.0 94 1005.8 13.6 S 13.6 0.0 5.9
22:08 13.9 13.0 94 1005.6 13.0 SW 13.6 0.0 5.9
22:10 13.8 12.9 94 1005.7 12.1 SW 15.2 0.0 5.9
22:11 13.8 12.9 94 1005.6 14.5 SW 15.2 0.0 5.9
22:12 13.8 12.9 94 1005.8 14.5 SW 15.2 0.0 5.9
22:13 13.8 12.9 94 1005.6 13.0 S 15.2 0.0 5.9
22:14 13.8 12.9 94 1005.7 13.0 SW 15.2 0.0 5.9
22:15 13.7 12.8 94 1005.7 13.0 WSW 15.2 0.0 5.9
22:16 13.7 12.8 94 1005.8 12.1 S 15.2 0.0 5.9
22:17 13.7 12.6 93 1005.7 11.4 S 15.2 0.0 5.9
22:18 13.7 12.6 93 1005.8 11.4 S 15.2 0.0 5.9
22:19 13.7 12.6 93 1005.8 11.4 SW 15.2 0.0 5.9
22:20 13.7 12.6 93 1005.6 10.7 SE 14.5 0.0 5.9
22:21 13.7 12.6 93 1005.8 13.6 S 14.5 0.0 5.9
22:22 13.6 12.5 93 1005.7 12.1 SW 14.5 0.0 5.9
22:24 13.6 12.5 93 1005.8 9.8 SW 13.6 0.0 5.9
22:25 13.6 12.5 93 1005.7 11.4 WSW 13.6 0.0 5.9
22:26 13.6 12.5 93 1005.8 14.5 SW 14.5 0.0 5.9
22:27 13.6 12.5 93 1005.6 12.1 S 14.5 0.0 5.9
22:28 13.6 12.5 93 1005.8 12.1 SW 14.5 0.0 5.9
22:29 13.6 12.5 93 1005.8 12.1 SW 14.5 0.0 5.9
22:30 13.6 12.5 93 1005.7 12.1 S 14.5 0.0 5.9
22:31 13.6 12.5 93 1005.7 10.7 SW 14.5 0.0 5.9
22:32 13.6 12.5 93 1005.9 10.7 S 14.5 0.0 5.9
22:33 13.6 12.5 93 1005.8 13.0 SW 14.5 0.0 5.9
22:34 13.6 12.5 93 1005.7 11.4 S 14.5 0.0 5.9
22:35 13.6 12.5 93 1005.8 9.2 SW 14.5 0.0 5.9
22:36 13.6 12.5 93 1005.8 9.8 S 14.5 0.0 5.9
22:37 13.6 12.5 93 1005.8 10.7 S 13.0 0.0 5.9
22:39 13.6 12.5 93 1005.8 10.7 SW 13.0 0.0 5.9
22:40 13.6 12.5 93 1005.8 8.3 S 13.0 0.0 5.9
22:41 13.6 12.5 93 1005.8 12.1 S 13.0 0.0 5.9
22:42 13.6 12.5 93 1005.8 12.1 SW 13.0 0.0 5.9
22:43 13.6 12.5 93 1005.9 10.7 S 13.0 0.0 5.9
22:44 13.6 12.5 93 1005.9 10.7 S 13.0 0.0 5.9
22:45 13.6 12.5 93 1005.8 13.0 SW 13.0 0.0 5.9
22:46 13.6 12.7 94 1005.8 11.4 SW 13.0 0.0 5.9
22:47 13.7 12.8 94 1005.8 10.7 SW 13.0 0.0 5.9
22:48 13.7 12.8 94 1005.9 11.4 SW 13.0 0.0 5.9
22:49 13.7 12.8 94 1006.0 13.6 SW 15.2 0.0 5.9
22:50 13.7 12.8 94 1005.9 12.1 S 15.2 0.0 5.9
22:51 13.7 12.8 94 1005.8 13.0 WSW 15.2 0.0 5.9
22:53 13.7 12.8 94 1005.8 12.1 S 15.9 0.0 5.9
22:54 13.7 12.8 94 1005.8 11.4 SE 15.9 0.0 5.9
22:55 13.7 12.8 94 1006.2 13.0 SW 15.9 0.0 5.9
22:56 13.7 12.8 94 1005.7 13.6 SW 15.9 0.0 5.9
22:57 13.7 12.8 94 1005.9 9.2 S 15.9 0.0 5.9
22:58 13.7 12.8 94 1005.8 13.6 S 15.9 0.0 5.9
22:59 13.7 12.8 94 1005.9 9.2 S 15.9 0.0 5.9
23:00 13.7 12.8 94 1005.8 9.2 S 15.9 0.0 5.9
23:01 13.7 12.8 94 1005.6 9.2 S 15.9 0.0 5.9
23:02 13.7 12.8 94 1005.9 9.2 S 13.6 0.0 5.9
23:03 13.7 12.8 94 1005.8 9.2 S 13.6 0.0 5.9
23:04 13.7 12.8 94 1005.7 9.2 S 13.6 0.0 5.9
23:05 13.7 12.8 94 1005.9 9.2 S 13.6 0.0 5.9
23:06 13.7 12.8 94 1005.8 9.2 S 13.6 0.0 5.9
23:08 13.7 12.8 94 1005.8 9.8 S 10.7 0.0 5.9
23:09 13.7 12.8 94 1005.7 11.4 S 11.4 0.0 5.9
23:10 13.7 12.8 94 1005.8 9.8 S 11.4 0.0 5.9
23:11 13.7 12.8 94 1005.8 9.8 SW 11.4 0.0 5.9
23:12 13.7 12.8 94 1006.0 12.1 S 12.1 0.0 5.9
23:13 13.7 12.8 94 1006.0 12.1 S 12.1 0.0 5.9
23:14 13.7 12.8 94 1005.7 9.8 SW 12.1 0.0 5.9
23:15 13.7 12.8 94 1005.9 10.7 S 12.1 0.0 5.9
23:16 13.7 12.8 94 1005.8 13.6 SW 13.6 0.0 5.9
23:17 13.7 12.8 94 1005.8 9.2 SW 13.6 0.0 5.9
23:18 13.6 12.7 94 1005.8 8.3 S 13.6 0.0 5.9
23:19 13.6 12.7 94 1005.9 10.7 SW 13.6 0.0 5.9
23:20 13.6 12.7 94 1005.7 9.2 S 13.6 0.0 5.9
23:21 13.6 12.7 94 1006.0 9.2 S 13.6 0.0 5.9
23:22 13.6 12.7 94 1005.9 11.4 WSW 13.6 0.0 5.9
23:23 13.6 12.7 94 1005.8 9.8 S 13.6 0.0 5.9
23:24 13.6 12.7 94 1005.9 9.8 S 13.6 0.0 5.9
23:25 13.6 12.7 94 1005.9 8.3 S 13.6 0.0 5.9
23:26 13.6 12.7 94 1005.8 8.3 SW 12.1 0.0 5.9
23:27 13.6 12.7 94 1006.0 11.4 S 11.4 0.0 5.9
23:28 13.6 12.7 94 1005.7 11.4 S 11.4 0.0 5.9
23:29 13.6 12.7 94 1006.1 8.3 S 11.4 0.0 5.9
23:31 13.5 12.6 94 1005.8 11.4 S 11.4 0.0 5.9
23:32 13.5 12.6 94 1006.0 9.8 SE 11.4 0.0 5.9
23:33 13.5 12.6 94 1006.0 7.6 S 11.4 0.0 5.9
23:34 13.5 12.6 94 1005.9 9.8 SW 11.4 0.0 5.9
23:35 13.5 12.6 94 1005.7 9.2 S 11.4 0.0 5.9
23:36 13.5 12.6 94 1005.7 9.8 S 11.4 0.0 5.9
23:37 13.5 12.6 94 1005.7 9.2 SW 11.4 0.0 5.9
23:38 13.5 12.6 94 1005.9 10.7 S 11.4 0.0 5.9
23:39 13.5 12.6 94 1005.7 11.4 S 11.4 0.0 5.9
23:40 13.5 12.6 94 1005.9 11.4 S 11.4 0.0 5.9
23:41 13.5 12.6 94 1005.7 9.2 SW 11.4 0.0 5.9
23:42 13.5 12.6 94 1005.7 13.6 S 13.6 0.0 5.9
23:43 13.5 12.6 94 1005.9 10.7 SW 13.6 0.0 5.9
23:44 13.5 12.6 94 1005.6 9.2 S 13.6 0.0 5.9
23:46 13.5 12.6 94 1005.7 9.8 S 13.6 0.0 5.9
23:47 13.5 12.6 94 1005.9 11.4 SW 13.6 0.0 5.9
23:48 13.5 12.6 94 1005.7 9.2 S 13.6 0.0 5.9
23:49 13.5 12.6 94 1005.8 8.3 S 13.6 0.0 5.9
23:50 13.5 12.6 94 1005.7 8.3 S 13.6 0.0 5.9
23:51 13.5 12.6 94 1005.9 10.7 WSW 13.6 0.0 5.9
23:52 13.5 12.6 94 1005.7 10.7 WSW 13.6 0.0 5.9
23:53 13.5 12.6 94 1005.7 10.7 SE 11.4 0.0 5.9
23:54 13.5 12.6 94 1005.5 10.7 S 11.4 0.0 5.9
23:55 13.5 12.6 94 1005.8 10.7 SW 11.4 0.0 5.9
23:56 13.5 12.6 94 1005.9 9.8 S 11.4 0.0 5.9
23:57 13.5 12.6 94 1005.8 14.5 S 14.5 0.0 5.9
23:58 13.5 12.6 94 1005.7 11.4 SSW 14.5 0.0 5.9

 

 

UK - WEATHER STATION TOPSITES - UK World Weather Websites

Copyright © Carnkie Weather 2009 - 2020.